Wetterdaten: Freitag, 21.07.2017
Datum Zeit Temp. Aussen Temp. o. S. +5cm Feuchte Auss BlattFeu 1 Luftdruck Regen Sonnenschein Regendauer Solar Windben Empfang
21.07.2017 00:00 17,3 C 16,1 C 15,0 C 82 % 0 lf 1012,8 hPa 0,0 l/m 0 min 0 min 0 W/m 10,5 km/h (2 Bft) 93,62 %
21.07.2017 00:02 17,3 C 16,1 C 14,4 C 82 % 0 lf 1012,9 hPa 0,0 l/m 0 min 0 min 0 W/m 8,4 km/h (2 Bft) 15,38 %
21.07.2017 00:04 17,2 C 15,6 C 14,4 C 82 % 0 lf 1012,8 hPa 0,0 l/m 0 min 0 min 1 W/m 8,4 km/h (2 Bft) 64,00 %
21.07.2017 00:06 17,2 C 15,6 C 14,4 C 82 % 0 lf 1012,9 hPa 0,0 l/m 0 min 0 min 5 W/m 8,4 km/h (2 Bft) 93,62 %
21.07.2017 00:10 17,1 C 15,6 C 14,4 C 82 % 0 lf 1013,0 hPa 0,0 l/m 0 min 0 min 0 W/m 6,3 km/h (2 Bft) 97,87 %
21.07.2017 00:12 17,1 C 15,6 C 14,4 C 82 % 0 lf 1013,0 hPa 0,0 l/m 0 min 0 min 5 W/m 6,3 km/h (2 Bft) 97,87 %
21.07.2017 00:14 17,0 C 15,6 C 13,9 C 81 % 0 lf 1013,1 hPa 0,0 l/m 0 min 0 min 1 W/m 8,4 km/h (2 Bft) 100,00 %
21.07.2017 00:16 16,9 C 15,6 C 14,4 C 81 % 0 lf 1013,1 hPa 0,0 l/m 0 min 0 min 0 W/m 8,4 km/h (2 Bft) 97,87 %
21.07.2017 00:18 16,9 C 15,6 C 14,4 C 81 % 0 lf 1013,1 hPa 0,0 l/m 0 min 0 min 0 W/m 8,4 km/h (2 Bft) 95,74 %
21.07.2017 00:20 16,9 C 15,6 C 14,4 C 81 % 0 lf 1013,1 hPa 0,0 l/m 0 min 0 min 0 W/m 10,5 km/h (2 Bft) 100,00 %
21.07.2017 00:22 16,8 C 15,6 C 14,4 C 81 % 0 lf 1013,1 hPa 0,0 l/m 0 min 0 min 0 W/m 6,3 km/h (2 Bft) 100,00 %
21.07.2017 00:24 16,8 C 15,6 C 13,9 C 82 % 0 lf 1013,1 hPa 0,0 l/m 0 min 0 min 0 W/m 6,3 km/h (2 Bft) 100,00 %
21.07.2017 00:26 16,8 C 15,0 C 13,9 C 82 % 0 lf 1013,1 hPa 0,0 l/m 0 min 0 min 0 W/m 8,4 km/h (2 Bft) 100,00 %
21.07.2017 00:28 16,7 C 15,0 C 13,9 C 82 % 0 lf 1013,1 hPa 0,0 l/m 0 min 0 min 4 W/m 8,4 km/h (2 Bft) 97,87 %
21.07.2017 00:30 16,7 C 15,0 C 13,9 C 82 % 0 lf 1013,1 hPa 0,0 l/m 0 min 0 min 0 W/m 8,4 km/h (2 Bft) 100,00 %
21.07.2017 00:32 16,6 C 15,0 C 13,9 C 82 % 0 lf 1013,1 hPa 0,0 l/m 0 min 0 min 0 W/m 8,4 km/h (2 Bft) 100,00 %
21.07.2017 00:34 16,6 C 15,0 C 13,9 C 82 % 0 lf 1013,1 hPa 0,0 l/m 0 min 0 min 0 W/m 8,4 km/h (2 Bft) 93,48 %
21.07.2017 00:36 16,6 C 15,0 C 13,9 C 81 % 0 lf 1013,2 hPa 0,0 l/m 0 min 0 min 1 W/m 8,4 km/h (2 Bft) 100,00 %
21.07.2017 00:38 16,5 C 15,0 C 13,9 C 81 % 0 lf 1013,1 hPa 0,0 l/m 0 min 0 min 0 W/m 10,5 km/h (2 Bft) 100,00 %
21.07.2017 00:40 16,4 C 15,0 C 13,9 C 81 % 0 lf 1013,1 hPa 0,0 l/m 0 min 0 min 1 W/m 8,4 km/h (2 Bft) 100,00 %
21.07.2017 00:42 16,4 C 15,0 C 13,9 C 81 % 0 lf 1013,1 hPa 0,0 l/m 0 min 0 min 5 W/m 8,4 km/h (2 Bft) 97,87 %
21.07.2017 00:44 16,3 C 15,0 C 13,9 C 81 % 0 lf 1013,1 hPa 0,0 l/m 0 min 0 min 0 W/m 8,4 km/h (2 Bft) 100,00 %
21.07.2017 00:46 16,3 C 15,0 C 13,9 C 81 % 0 lf 1013,1 hPa 0,0 l/m 0 min 0 min 0 W/m 4,2 km/h (1 Bft) 95,65 %
21.07.2017 00:48 16,3 C 15,0 C 13,9 C 81 % 0 lf 1013,1 hPa 0,0 l/m 0 min 0 min 5 W/m 10,5 km/h (2 Bft) 97,87 %
21.07.2017 00:50 16,2 C 15,6 C 13,9 C 81 % 0 lf 1013,1 hPa 0,0 l/m 0 min 0 min 5 W/m 8,4 km/h (2 Bft) 95,74 %
21.07.2017 00:52 16,2 C 15,0 C 13,9 C 81 % 0 lf 1013,1 hPa 0,0 l/m 0 min 0 min 5 W/m 6,3 km/h (2 Bft) 97,87 %
21.07.2017 00:54 16,2 C 15,0 C 13,9 C 81 % 0 lf 1013,2 hPa 0,0 l/m 0 min 0 min 5 W/m 8,4 km/h (2 Bft) 97,87 %
21.07.2017 00:56 16,1 C 15,0 C 13,9 C 81 % 0 lf 1013,2 hPa 0,0 l/m 0 min 0 min 5 W/m 8,4 km/h (2 Bft) 95,65 %
21.07.2017 00:58 16,1 C 15,0 C 13,9 C 81 % 0 lf 1013,2 hPa 0,0 l/m 0 min 0 min 5 W/m 6,3 km/h (2 Bft) 93,62 %
21.07.2017 01:00 16,1 C 14,4 C 13,9 C 81 % 0 lf 1013,2 hPa 0,0 l/m 0 min 0 min 0 W/m 8,4 km/h (2 Bft) 93,62 %
21.07.2017 01:02 16,0 C 14,4 C 13,9 C 81 % 0 lf 1013,3 hPa 0,0 l/m 0 min 0 min 0 W/m 8,4 km/h (2 Bft) 95,74 %
21.07.2017 01:04 16,0 C 15,0 C 13,9 C 81 % 0 lf 1013,2 hPa 0,0 l/m 0 min 0 min 0 W/m 6,3 km/h (2 Bft) 95,74 %
21.07.2017 01:06 15,9 C 14,4 C 13,3 C 81 % 0 lf 1013,2 hPa 0,0 l/m 0 min 0 min 0 W/m 6,3 km/h (2 Bft) 95,74 %
21.07.2017 01:08 15,9 C 14,4 C 13,3 C 81 % 0 lf 1013,3 hPa 0,0 l/m 0 min 0 min 0 W/m 6,3 km/h (2 Bft) 95,65 %
21.07.2017 01:10 15,9 C 14,4 C 13,3 C 81 % 0 lf 1013,2 hPa 0,0 l/m 0 min 0 min 0 W/m 8,4 km/h (2 Bft) 95,74 %
21.07.2017 01:12 15,8 C 15,0 C 13,3 C 81 % 0 lf 1013,3 hPa 0,0 l/m 0 min 0 min 0 W/m 8,4 km/h (2 Bft) 93,62 %
21.07.2017 01:14 15,8 C 15,0 C 13,3 C 80 % 0 lf 1013,2 hPa 0,0 l/m 0 min 0 min 0 W/m 6,3 km/h (2 Bft) 95,74 %
21.07.2017 01:16 15,7 C 14,4 C 13,3 C 80 % 0 lf 1013,3 hPa 0,0 l/m 0 min 0 min 0 W/m 8,4 km/h (2 Bft) 93,62 %
21.07.2017 01:18 15,7 C 14,4 C 13,3 C 80 % 0 lf 1013,3 hPa 0,0 l/m 0 min 0 min 3 W/m 8,4 km/h (2 Bft) 93,62 %
21.07.2017 01:20 15,7 C 14,4 C 13,3 C 80 % 0 lf 1013,3 hPa 0,0 l/m 0 min 0 min 0 W/m 8,4 km/h (2 Bft) 97,83 %
21.07.2017 01:22 15,6 C 14,4 C 13,3 C 80 % 0 lf 1013,3 hPa 0,0 l/m 0 min 0 min 2 W/m 10,5 km/h (2 Bft) 95,74 %
21.07.2017 01:24 15,6 C 14,4 C 13,3 C 80 % 0 lf 1013,3 hPa 0,0 l/m 0 min 0 min 0 W/m 10,5 km/h (2 Bft) 95,74 %
21.07.2017 01:26 15,6 C 14,4 C 13,3 C 80 % 0 lf 1013,3 hPa 0,0 l/m 0 min 0 min 3 W/m 8,4 km/h (2 Bft) 89,36 %
21.07.2017 01:28 15,5 C 14,4 C 13,3 C 80 % 0 lf 1013,3 hPa 0,0 l/m 0 min 0 min 0 W/m 12,6 km/h (3 Bft) 91,49 %
21.07.2017 01:30 15,5 C 14,4 C 13,3 C 80 % 0 lf 1013,3 hPa 0,0 l/m 0 min 0 min 0 W/m 10,5 km/h (2 Bft) 95,74 %
21.07.2017 01:32 15,4 C 14,4 C 13,3 C 79 % 0 lf 1013,3 hPa 0,0 l/m 0 min 0 min 5 W/m 12,6 km/h (3 Bft) 93,48 %
21.07.2017 01:34 15,4 C 14,4 C 13,3 C 80 % 0 lf 1013,3 hPa 0,0 l/m 0 min 0 min 4 W/m 10,5 km/h (2 Bft) 95,74 %
21.07.2017 01:36 15,4 C 14,4 C 13,3 C 80 % 0 lf 1013,4 hPa 0,0 l/m 0 min 0 min 0 W/m 10,5 km/h (2 Bft) 95,74 %
21.07.2017 01:38 15,4 C 14,4 C 13,3 C 79 % 0 lf 1013,4 hPa 0,0 l/m 0 min 0 min 0 W/m 12,6 km/h (3 Bft) 95,74 %
21.07.2017 01:40 15,3 C 14,4 C 13,3 C 79 % 0 lf 1013,4 hPa 0,0 l/m 0 min 0 min 0 W/m 10,5 km/h (2 Bft) 89,36 %
21.07.2017 01:42 15,3 C 14,4 C 13,3 C 79 % 0 lf 1013,3 hPa 0,0 l/m 0 min 0 min 0 W/m 8,4 km/h (2 Bft) 93,62 %
21.07.2017 01:44 15,3 C 14,4 C 13,3 C 79 % 0 lf 1013,4 hPa 0,0 l/m 0 min 0 min 0 W/m 10,5 km/h (2 Bft) 93,48 %
21.07.2017 01:46 15,3 C 14,4 C 13,3 C 79 % 0 lf 1013,3 hPa 0,0 l/m 0 min 0 min 0 W/m 8,4 km/h (2 Bft) 95,74 %
21.07.2017 01:48 15,2 C 14,4 C 13,3 C 79 % 0 lf 1013,4 hPa 0,0 l/m 0 min 0 min 0 W/m 8,4 km/h (2 Bft) 95,74 %
21.07.2017 01:50 15,2 C 14,4 C 13,3 C 79 % 0 lf 1013,4 hPa 0,0 l/m 0 min 0 min 0 W/m 10,5 km/h (2 Bft) 91,49 %
21.07.2017 01:52 15,2 C 14,4 C 13,3 C 79 % 0 lf 1013,4 hPa 0,0 l/m 0 min 0 min 0 W/m 10,5 km/h (2 Bft) 93,62 %
21.07.2017 01:54 15,2 C 14,4 C 13,3 C 79 % 0 lf 1013,3 hPa 0,0 l/m 0 min 0 min 0 W/m 10,5 km/h (2 Bft) 95,74 %
21.07.2017 01:56 15,1 C 14,4 C 13,3 C 78 % 0 lf 1013,4 hPa 0,0 l/m 0 min 0 min 5 W/m 10,5 km/h (2 Bft) 93,48 %
21.07.2017 01:58 15,1 C 13,9 C 13,3 C 78 % 0 lf 1013,3 hPa 0,0 l/m 0 min 0 min 3 W/m 10,5 km/h (2 Bft) 93,62 %
21.07.2017 02:00 15,1 C 13,9 C 12,8 C 78 % 0 lf 1013,3 hPa 0,0 l/m 0 min 0 min 1 W/m 8,4 km/h (2 Bft) 93,62 %
21.07.2017 02:02 15,1 C 13,9 C 12,8 C 78 % 0 lf 1013,3 hPa 0,0 l/m 0 min 0 min 0 W/m 8,4 km/h (2 Bft) 91,49 %
21.07.2017 02:04 15,1 C 13,9 C 12,8 C 78 % 0 lf 1013,3 hPa 0,0 l/m 0 min 0 min 0 W/m 6,3 km/h (2 Bft) 91,49 %
21.07.2017 02:06 15,0 C 13,9 C 12,8 C 78 % 0 lf 1013,3 hPa 0,0 l/m 0 min 0 min 0 W/m 10,5 km/h (2 Bft) 91,30 %
21.07.2017 02:08 15,0 C 13,9 C 12,8 C 78 % 0 lf 1013,3 hPa 0,0 l/m 0 min 0 min 1 W/m 6,3 km/h (2 Bft) 95,74 %
21.07.2017 02:10 15,0 C 13,9 C 12,8 C 78 % 0 lf 1013,3 hPa 0,0 l/m 0 min 0 min 3 W/m 8,4 km/h (2 Bft) 97,87 %
21.07.2017 02:12 14,9 C 13,9 C 12,8 C 78 % 0 lf 1013,4 hPa 0,0 l/m 0 min 0 min 0 W/m 8,4 km/h (2 Bft) 95,74 %
21.07.2017 02:14 14,9 C 13,9 C 12,8 C 78 % 0 lf 1013,4 hPa 0,0 l/m 0 min 0 min 0 W/m 10,5 km/h (2 Bft) 95,74 %
21.07.2017 02:16 14,9 C 13,9 C 12,8 C 78 % 0 lf 1013,4 hPa 0,0 l/m 0 min 0 min 5 W/m 8,4 km/h (2 Bft) 95,74 %
21.07.2017 02:18 14,9 C 13,9 C 12,8 C 78 % 0 lf 1013,4 hPa 0,0 l/m 0 min 0 min 0 W/m 8,4 km/h (2 Bft) 95,65 %
21.07.2017 02:20 14,8 C 13,9 C 12,8 C 78 % 0 lf 1013,4 hPa 0,0 l/m 0 min 0 min 0 W/m 8,4 km/h (2 Bft) 95,74 %
21.07.2017 02:22 14,8 C 13,9 C 12,8 C 78 % 0 lf 1013,4 hPa 0,0 l/m 0 min 0 min 0 W/m 8,4 km/h (2 Bft) 97,87 %
21.07.2017 02:24 14,8 C 13,9 C 12,8 C 78 % 0 lf 1013,3 hPa 0,0 l/m 0 min 0 min 0 W/m 10,5 km/h (2 Bft) 97,87 %
21.07.2017 02:26 14,7 C 13,9 C 12,8 C 78 % 0 lf 1013,3 hPa 0,0 l/m 0 min 0 min 0 W/m 6,3 km/h (2 Bft) 97,87 %
21.07.2017 02:28 14,7 C 13,9 C 12,8 C 78 % 0 lf 1013,4 hPa 0,0 l/m 0 min 0 min 2 W/m 6,3 km/h (2 Bft) 97,87 %
21.07.2017 02:30 14,7 C 13,9 C 12,8 C 78 % 0 lf 1013,3 hPa 0,0 l/m 0 min 0 min 0 W/m 8,4 km/h (2 Bft) 93,48 %
21.07.2017 02:32 14,7 C 13,9 C 12,8 C 78 % 0 lf 1013,4 hPa 0,0 l/m 0 min 0 min 0 W/m 8,4 km/h (2 Bft) 97,87 %
21.07.2017 02:34 14,6 C 13,9 C 12,8 C 78 % 0 lf 1013,4 hPa 0,0 l/m 0 min 0 min 0 W/m 6,3 km/h (2 Bft) 97,87 %
21.07.2017 02:36 14,6 C 13,9 C 12,8 C 78 % 0 lf 1013,4 hPa 0,0 l/m 0 min 0 min 0 W/m 8,4 km/h (2 Bft) 95,74 %
21.07.2017 02:38 14,6 C 13,9 C 12,8 C 78 % 0 lf 1013,4 hPa 0,0 l/m 0 min 0 min 0 W/m 8,4 km/h (2 Bft) 97,87 %
21.07.2017 02:40 14,5 C 13,9 C 12,8 C 78 % 0 lf 1013,4 hPa 0,0 l/m 0 min 0 min 0 W/m 8,4 km/h (2 Bft) 97,87 %
21.07.2017 02:42 14,5 C 13,3 C 12,2 C 78 % 0 lf 1013,4 hPa 0,0 l/m 0 min 0 min 0 W/m 8,4 km/h (2 Bft) 97,83 %
21.07.2017 02:44 14,5 C 13,3 C 12,2 C 79 % 0 lf 1013,4 hPa 0,0 l/m 0 min 0 min 0 W/m 10,5 km/h (2 Bft) 97,87 %
21.07.2017 02:46 14,4 C 13,3 C 12,2 C 79 % 0 lf 1013,3 hPa 0,0 l/m 0 min 0 min 0 W/m 8,4 km/h (2 Bft) 100,00 %
21.07.2017 02:48 14,4 C 13,3 C 12,2 C 79 % 0 lf 1013,3 hPa 0,0 l/m 0 min 0 min 0 W/m 10,5 km/h (2 Bft) 97,87 %
21.07.2017 02:50 14,4 C 13,3 C 12,2 C 79 % 0 lf 1013,4 hPa 0,0 l/m 0 min 0 min 0 W/m 10,5 km/h (2 Bft) 100,00 %
21.07.2017 02:52 14,3 C 13,3 C 12,2 C 79 % 0 lf 1013,4 hPa 0,0 l/m 0 min 0 min 0 W/m 10,5 km/h (2 Bft) 95,74 %
21.07.2017 02:54 14,3 C 13,3 C 12,2 C 79 % 0 lf 1013,4 hPa 0,0 l/m 0 min 0 min 0 W/m 8,4 km/h (2 Bft) 100,00 %
21.07.2017 02:56 14,3 C 13,3 C 12,2 C 79 % 0 lf 1013,4 hPa 0,0 l/m 0 min 0 min 0 W/m 8,4 km/h (2 Bft) 100,00 %
21.07.2017 02:58 14,2 C 13,3 C 12,2 C 79 % 0 lf 1013,4 hPa 0,0 l/m 0 min 0 min 0 W/m 10,5 km/h (2 Bft) 100,00 %
21.07.2017 03:00 14,2 C 13,3 C 12,2 C 79 % 0 lf 1013,3 hPa 0,0 l/m 0 min 0 min 0 W/m 6,3 km/h (2 Bft) 97,87 %
21.07.2017 03:02 14,2 C 13,3 C 12,2 C 79 % 0 lf 1013,4 hPa 0,0 l/m 0 min 0 min 4 W/m 10,5 km/h (2 Bft) 100,00 %
21.07.2017 03:04 14,2 C 13,3 C 12,2 C 79 % 0 lf 1013,4 hPa 0,0 l/m 0 min 0 min 0 W/m 8,4 km/h (2 Bft) 100,00 %
21.07.2017 03:06 14,2 C 13,3 C 12,2 C 79 % 0 lf 1013,3 hPa 0,0 l/m 0 min 0 min 0 W/m 10,5 km/h (2 Bft) 100,00 %
21.07.2017 03:08 14,2 C 13,3 C 12,2 C 79 % 0 lf 1013,4 hPa 0,0 l/m 0 min 0 min 0 W/m 10,5 km/h (2 Bft) 100,00 %
21.07.2017 03:10 14,2 C 13,3 C 12,2 C 79 % 0 lf 1013,3 hPa 0,0 l/m 0 min 0 min 1 W/m 10,5 km/h (2 Bft) 100,00 %
21.07.2017 03:12 14,2 C 13,3 C 12,2 C 79 % 0 lf 1013,4 hPa 0,0 l/m 0 min 0 min 3 W/m 10,5 km/h (2 Bft) 97,87 %
21.07.2017 03:14 14,2 C 13,3 C 12,2 C 79 % 0 lf 1013,4 hPa 0,0 l/m 0 min 0 min 4 W/m 10,5 km/h (2 Bft) 100,00 %
21.07.2017 03:16 14,1 C 13,3 C 12,2 C 78 % 0 lf 1013,4 hPa 0,0 l/m 0 min 0 min 0 W/m 10,5 km/h (2 Bft) 97,83 %
21.07.2017 03:18 14,0 C 13,3 C 12,2 C 78 % 0 lf 1013,4 hPa 0,0 l/m 0 min 0 min 0 W/m 10,5 km/h (2 Bft) 100,00 %
21.07.2017 03:20 14,0 C 13,3 C 12,2 C 78 % 0 lf 1013,4 hPa 0,0 l/m 0 min 0 min 2 W/m 12,6 km/h (3 Bft) 100,00 %
21.07.2017 03:22 14,0 C 13,3 C 12,2 C 78 % 0 lf 1013,4 hPa 0,0 l/m 0 min 0 min 2 W/m 12,6 km/h (3 Bft) 100,00 %
21.07.2017 03:24 13,9 C 13,3 C 12,2 C 78 % 0 lf 1013,5 hPa 0,0 l/m 0 min 0 min 3 W/m 10,5 km/h (2 Bft) 95,74 %
21.07.2017 03:26 13,9 C 13,3 C 12,2 C 78 % 0 lf 1013,4 hPa 0,0 l/m 0 min 0 min 3 W/m 8,4 km/h (2 Bft) 100,00 %
21.07.2017 03:28 13,9 C 13,3 C 12,2 C 78 % 0 lf 1013,5 hPa 0,0 l/m 0 min 0 min 0 W/m 8,4 km/h (2 Bft) 95,74 %
21.07.2017 03:30 13,9 C 13,3 C 12,2 C 78 % 0 lf 1013,4 hPa 0,0 l/m 0 min 0 min 0 W/m 10,5 km/h (2 Bft) 97,83 %
21.07.2017 03:32 13,9 C 12,8 C 12,2 C 78 % 0 lf 1013,4 hPa 0,0 l/m 0 min 0 min 0 W/m 12,6 km/h (3 Bft) 97,87 %
21.07.2017 03:34 13,8 C 13,3 C 12,2 C 78 % 0 lf 1013,4 hPa 0,0 l/m 0 min 0 min 0 W/m 10,5 km/h (2 Bft) 100,00 %
21.07.2017 03:36 13,8 C 13,3 C 12,2 C 78 % 0 lf 1013,4 hPa 0,0 l/m 0 min 0 min 0 W/m 10,5 km/h (2 Bft) 95,74 %
21.07.2017 03:38 13,8 C 13,3 C 12,2 C 78 % 0 lf 1013,4 hPa 0,0 l/m 0 min 0 min 0 W/m 14,6 km/h (3 Bft) 97,87 %
21.07.2017 03:40 13,8 C 12,8 C 11,7 C 79 % 0 lf 1013,5 hPa 0,0 l/m 0 min 0 min 0 W/m 10,5 km/h (2 Bft) 95,65 %
21.07.2017 03:42 13,8 C 12,8 C 11,7 C 79 % 0 lf 1013,4 hPa 0,0 l/m 0 min 0 min 0 W/m 8,4 km/h (2 Bft) 93,62 %
21.07.2017 03:44 13,7 C 12,8 C 11,7 C 79 % 0 lf 1013,5 hPa 0,0 l/m 0 min 0 min 0 W/m 6,3 km/h (2 Bft) 93,62 %
21.07.2017 03:46 13,7 C 12,8 C 11,7 C 79 % 0 lf 1013,5 hPa 0,0 l/m 0 min 0 min 0 W/m 8,4 km/h (2 Bft) 93,62 %
21.07.2017 03:48 13,7 C 12,8 C 11,7 C 79 % 0 lf 1013,5 hPa 0,0 l/m 0 min 0 min 0 W/m 8,4 km/h (2 Bft) 95,74 %
21.07.2017 03:50 13,7 C 12,8 C 11,7 C 79 % 0 lf 1013,5 hPa 0,0 l/m 0 min 0 min 0 W/m 10,5 km/h (2 Bft) 95,74 %
21.07.2017 03:52 13,7 C 12,8 C 11,7 C 79 % 0 lf 1013,5 hPa 0,0 l/m 0 min 0 min 0 W/m 10,5 km/h (2 Bft) 93,48 %
21.07.2017 03:54 13,7 C 12,8 C 11,7 C 79 % 0 lf 1013,5 hPa 0,0 l/m 0 min 0 min 0 W/m 8,4 km/h (2 Bft) 95,74 %
21.07.2017 03:56 13,6 C 12,8 C 11,7 C 79 % 0 lf 1013,5 hPa 0,0 l/m 0 min 0 min 0 W/m 8,4 km/h (2 Bft) 93,62 %
21.07.2017 03:58 13,6 C 12,8 C 11,7 C 79 % 0 lf 1013,5 hPa 0,0 l/m 0 min 0 min 0 W/m 6,3 km/h (2 Bft) 93,62 %
21.07.2017 04:00 13,6 C 12,8 C 11,7 C 79 % 0 lf 1013,5 hPa 0,0 l/m 0 min 0 min 0 W/m 6,3 km/h (2 Bft) 91,49 %
21.07.2017 04:02 13,6 C 12,8 C 11,7 C 79 % 0 lf 1013,5 hPa 0,0 l/m 0 min 0 min 0 W/m 8,4 km/h (2 Bft) 100,00 %
21.07.2017 04:04 13,5 C 12,8 C 11,7 C 79 % 0 lf 1013,5 hPa 0,0 l/m 0 min 0 min 0 W/m 8,4 km/h (2 Bft) 95,65 %
21.07.2017 04:06 13,5 C 12,8 C 11,7 C 79 % 0 lf 1013,5 hPa 0,0 l/m 0 min 0 min 0 W/m 10,5 km/h (2 Bft) 97,87 %
21.07.2017 04:08 13,5 C 12,2 C 11,7 C 79 % 0 lf 1013,5 hPa 0,0 l/m 0 min 0 min 0 W/m 10,5 km/h (2 Bft) 95,74 %
21.07.2017 04:10 13,4 C 12,2 C 11,1 C 79 % 0 lf 1013,5 hPa 0,0 l/m 0 min 0 min 0 W/m 8,4 km/h (2 Bft) 95,74 %
21.07.2017 04:12 13,4 C 12,2 C 11,1 C 79 % 0 lf 1013,4 hPa 0,0 l/m 0 min 0 min 0 W/m 6,3 km/h (2 Bft) 97,87 %
21.07.2017 04:14 13,4 C 12,2 C 11,1 C 79 % 0 lf 1013,4 hPa 0,0 l/m 0 min 0 min 0 W/m 8,4 km/h (2 Bft) 97,87 %
21.07.2017 04:16 13,4 C 12,2 C 11,1 C 79 % 0 lf 1013,5 hPa 0,0 l/m 0 min 0 min 0 W/m 6,3 km/h (2 Bft) 97,83 %
21.07.2017 04:18 13,4 C 12,2 C 11,1 C 79 % 0 lf 1013,5 hPa 0,0 l/m 0 min 0 min 0 W/m 4,2 km/h (1 Bft) 97,87 %
21.07.2017 04:20 13,3 C 12,2 C 11,1 C 79 % 0 lf 1013,5 hPa 0,0 l/m 0 min 0 min 0 W/m 8,4 km/h (2 Bft) 97,87 %
21.07.2017 04:22 13,3 C 12,2 C 11,7 C 80 % 0 lf 1013,5 hPa 0,0 l/m 0 min 0 min 0 W/m 8,4 km/h (2 Bft) 97,87 %
21.07.2017 04:24 13,3 C 12,2 C 11,1 C 80 % 0 lf 1013,5 hPa 0,0 l/m 0 min 0 min 0 W/m 6,3 km/h (2 Bft) 97,87 %
21.07.2017 04:26 13,3 C 12,2 C 11,1 C 80 % 0 lf 1013,5 hPa 0,0 l/m 0 min 0 min 0 W/m 6,3 km/h (2 Bft) 91,30 %
21.07.2017 04:28 13,3 C 12,2 C 11,1 C 80 % 0 lf 1013,5 hPa 0,0 l/m 0 min 0 min 0 W/m 8,4 km/h (2 Bft) 93,62 %
21.07.2017 04:30 13,2 C 12,2 C 11,1 C 80 % 0 lf 1013,5 hPa 0,0 l/m 0 min 0 min 0 W/m 6,3 km/h (2 Bft) 97,87 %
21.07.2017 04:32 13,2 C 12,2 C 11,1 C 80 % 0 lf 1013,5 hPa 0,0 l/m 0 min 0 min 0 W/m 6,3 km/h (2 Bft) 97,87 %
21.07.2017 04:34 13,2 C 12,2 C 11,1 C 80 % 0 lf 1013,5 hPa 0,0 l/m 0 min 0 min 0 W/m 6,3 km/h (2 Bft) 100,00 %
21.07.2017 04:36 13,2 C 11,7 C 10,6 C 80 % 0 lf 1013,5 hPa 0,0 l/m 0 min 0 min 0 W/m 6,3 km/h (2 Bft) 97,87 %
21.07.2017 04:38 13,2 C 11,7 C 10,6 C 80 % 0 lf 1013,5 hPa 0,0 l/m 0 min 0 min 0 W/m 4,2 km/h (1 Bft) 97,87 %
21.07.2017 04:40 13,2 C 11,7 C 10,6 C 80 % 0 lf 1013,5 hPa 0,0 l/m 0 min 0 min 0 W/m 6,3 km/h (2 Bft) 97,83 %
21.07.2017 04:42 13,1 C 12,2 C 11,1 C 80 % 0 lf 1013,5 hPa 0,0 l/m 0 min 0 min 0 W/m 8,4 km/h (2 Bft) 100,00 %
21.07.2017 04:44 13,1 C 11,7 C 11,1 C 80 % 0 lf 1013,5 hPa 0,0 l/m 0 min 0 min 0 W/m 6,3 km/h (2 Bft) 97,87 %
21.07.2017 04:46 13,1 C 11,7 C 11,1 C 80 % 0 lf 1013,5 hPa 0,0 l/m 0 min 0 min 0 W/m 4,2 km/h (1 Bft) 97,87 %
21.07.2017 04:48 13,1 C 11,7 C 10,6 C 80 % 0 lf 1013,6 hPa 0,0 l/m 0 min 0 min 0 W/m 4,2 km/h (1 Bft) 95,74 %
21.07.2017 04:50 13,0 C 11,7 C 10,6 C 80 % 0 lf 1013,6 hPa 0,0 l/m 0 min 0 min 0 W/m 6,3 km/h (2 Bft) 93,48 %
21.07.2017 04:52 13,0 C 11,7 C 10,6 C 80 % 0 lf 1013,6 hPa 0,0 l/m 0 min 0 min 0 W/m 4,2 km/h (1 Bft) 97,87 %
21.07.2017 04:54 13,0 C 11,7 C 10,6 C 81 % 0 lf 1013,6 hPa 0,0 l/m 0 min 0 min 0 W/m 6,3 km/h (2 Bft) 91,49 %
21.07.2017 04:56 12,9 C 11,1 C 10,6 C 81 % 0 lf 1013,6 hPa 0,0 l/m 0 min 0 min 0 W/m 4,2 km/h (1 Bft) 95,74 %
21.07.2017 04:58 12,9 C 11,1 C 10,6 C 81 % 0 lf 1013,6 hPa 0,0 l/m 0 min 0 min 5 W/m 4,2 km/h (1 Bft) 95,74 %
21.07.2017 05:00 12,9 C 11,7 C 10,6 C 81 % 0 lf 1013,7 hPa 0,0 l/m 0 min 0 min 0 W/m 4,2 km/h (1 Bft) 97,87 %
21.07.2017 05:02 12,9 C 11,7 C 10,6 C 81 % 0 lf 1013,6 hPa 0,0 l/m 0 min 0 min 0 W/m 6,3 km/h (2 Bft) 95,65 %
21.07.2017 05:04 12,9 C 11,1 C 10,6 C 81 % 0 lf 1013,6 hPa 0,0 l/m 0 min 0 min 5 W/m 6,3 km/h (2 Bft) 95,74 %
21.07.2017 05:08 12,8 C 11,7 C 10,0 C 81 % 0 lf 1013,6 hPa 0,0 l/m 0 min 0 min 5 W/m 6,3 km/h (2 Bft) 94,68 %
21.07.2017 05:10 12,8 C 11,7 C 10,6 C 81 % 0 lf 1013,6 hPa 0,0 l/m 0 min 0 min 5 W/m 8,4 km/h (2 Bft) 93,62 %
21.07.2017 05:13 12,8 C 11,7 C 10,6 C 82 % 0 lf 1013,6 hPa 0,0 l/m 0 min 0 min 5 W/m 6,3 km/h (2 Bft) 94,29 %
21.07.2017 05:14 12,8 C 11,7 C 10,6 C 82 % 0 lf 1013,6 hPa 0,0 l/m 0 min 0 min 5 W/m 4,2 km/h (1 Bft) 95,65 %
21.07.2017 05:16 12,7 C 11,7 C 10,6 C 82 % 0 lf 1013,6 hPa 0,0 l/m 0 min 0 min 0 W/m 6,3 km/h (2 Bft) 95,74 %
21.07.2017 05:18 12,7 C 11,7 C 10,6 C 82 % 0 lf 1013,6 hPa 0,0 l/m 0 min 0 min 0 W/m 6,3 km/h (2 Bft) 95,74 %
21.07.2017 05:20 12,7 C 11,7 C 10,6 C 82 % 0 lf 1013,6 hPa 0,0 l/m 0 min 0 min 0 W/m 8,4 km/h (2 Bft) 93,62 %
21.07.2017 05:22 12,7 C 12,2 C 10,6 C 82 % 0 lf 1013,6 hPa 0,0 l/m 0 min 0 min 0 W/m 8,4 km/h (2 Bft) 91,49 %
21.07.2017 05:24 12,7 C 12,2 C 10,6 C 83 % 0 lf 1013,6 hPa 0,0 l/m 0 min 0 min 0 W/m 12,6 km/h (3 Bft) 93,62 %
21.07.2017 05:26 12,7 C 12,2 C 10,6 C 82 % 0 lf 1013,6 hPa 0,0 l/m 0 min 0 min 0 W/m 8,4 km/h (2 Bft) 95,65 %
21.07.2017 05:28 12,7 C 12,2 C 10,6 C 83 % 0 lf 1013,6 hPa 0,0 l/m 0 min 0 min 0 W/m 8,4 km/h (2 Bft) 93,62 %
21.07.2017 05:30 12,6 C 12,2 C 11,1 C 83 % 0 lf 1013,6 hPa 0,0 l/m 0 min 0 min 0 W/m 10,5 km/h (2 Bft) 95,74 %
21.07.2017 05:32 12,6 C 12,2 C 10,6 C 83 % 0 lf 1013,6 hPa 0,0 l/m 0 min 0 min 0 W/m 8,4 km/h (2 Bft) 93,62 %
21.07.2017 05:34 12,6 C 12,2 C 10,6 C 83 % 0 lf 1013,7 hPa 0,0 l/m 0 min 0 min 0 W/m 6,3 km/h (2 Bft) 91,49 %
21.07.2017 05:38 12,6 C 12,2 C 10,6 C 83 % 0 lf 1013,7 hPa 0,0 l/m 0 min 0 min 0 W/m 6,3 km/h (2 Bft) 94,62 %
21.07.2017 05:40 12,6 C 12,2 C 10,6 C 83 % 0 lf 1013,7 hPa 0,0 l/m 0 min 0 min 0 W/m 6,3 km/h (2 Bft) 95,74 %
21.07.2017 05:42 12,5 C 12,2 C 10,6 C 83 % 0 lf 1013,7 hPa 0,0 l/m 0 min 0 min 0 W/m 8,4 km/h (2 Bft) 95,74 %
21.07.2017 05:44 12,5 C 12,2 C 10,6 C 83 % 0 lf 1013,7 hPa 0,0 l/m 0 min 0 min 0 W/m 8,4 km/h (2 Bft) 91,49 %
21.07.2017 05:46 12,5 C 12,2 C 10,6 C 83 % 0 lf 1013,7 hPa 0,0 l/m 0 min 0 min 0 W/m 8,4 km/h (2 Bft) 93,62 %
21.07.2017 05:48 12,5 C 12,2 C 10,6 C 84 % 0 lf 1013,7 hPa 0,0 l/m 0 min 0 min 0 W/m 8,4 km/h (2 Bft) 93,62 %
21.07.2017 05:50 12,5 C 12,2 C 10,6 C 84 % 0 lf 1013,8 hPa 0,0 l/m 0 min 0 min 9 W/m 8,4 km/h (2 Bft) 95,65 %
21.07.2017 05:52 12,5 C 12,2 C 10,6 C 84 % 0 lf 1013,7 hPa 0,0 l/m 0 min 0 min 10 W/m 6,3 km/h (2 Bft) 95,74 %
21.07.2017 05:54 12,4 C 12,2 C 10,6 C 84 % 0 lf 1013,8 hPa 0,0 l/m 0 min 0 min 11 W/m 8,4 km/h (2 Bft) 97,87 %
21.07.2017 05:56 12,4 C 12,2 C 10,6 C 84 % 0 lf 1013,8 hPa 0,0 l/m 0 min 0 min 12 W/m 6,3 km/h (2 Bft) 95,74 %
21.07.2017 05:58 12,4 C 11,7 C 10,6 C 84 % 0 lf 1013,8 hPa 0,0 l/m 0 min 0 min 13 W/m 8,4 km/h (2 Bft) 97,87 %
21.07.2017 06:00 12,4 C 11,7 C 10,6 C 84 % 0 lf 1013,9 hPa 0,0 l/m 0 min 0 min 14 W/m 6,3 km/h (2 Bft) 95,65 %
21.07.2017 06:02 12,4 C 11,7 C 10,6 C 84 % 0 lf 1013,9 hPa 0,0 l/m 0 min 0 min 16 W/m 6,3 km/h (2 Bft) 93,62 %
21.07.2017 06:04 12,4 C 11,7 C 10,6 C 84 % 0 lf 1013,9 hPa 0,0 l/m 0 min 0 min 18 W/m 6,3 km/h (2 Bft) 97,87 %
21.07.2017 06:08 12,4 C 11,7 C 10,6 C 84 % 0 lf 1013,8 hPa 0,0 l/m 0 min 0 min 20 W/m 6,3 km/h (2 Bft) 97,87 %
21.07.2017 06:12 12,4 C 11,7 C 10,6 C 84 % 0 lf 1013,9 hPa 0,0 l/m 0 min 0 min 23 W/m 8,4 km/h (2 Bft) 96,77 %
21.07.2017 06:14 12,4 C 11,7 C 10,6 C 84 % 0 lf 1013,9 hPa 0,0 l/m 0 min 0 min 26 W/m 4,2 km/h (1 Bft) 97,87 %
21.07.2017 06:16 12,3 C 11,7 C 10,6 C 84 % 0 lf 1013,9 hPa 0,0 l/m 2 min 0 min 30 W/m 4,2 km/h (1 Bft) 95,74 %
21.07.2017 06:18 12,3 C 11,7 C 10,6 C 84 % 0 lf 1013,8 hPa 0,0 l/m 2 min 0 min 33 W/m 4,2 km/h (1 Bft) 97,87 %
21.07.2017 06:20 12,3 C 11,7 C 10,6 C 84 % 0 lf 1013,9 hPa 0,0 l/m 2 min 0 min 35 W/m 6,3 km/h (2 Bft) 100,00 %
21.07.2017 06:22 12,3 C 11,7 C 10,6 C 84 % 0 lf 1013,9 hPa 0,0 l/m 2 min 0 min 40 W/m 6,3 km/h (2 Bft) 100,00 %
21.07.2017 06:24 12,3 C 11,7 C 10,6 C 84 % 0 lf 1013,9 hPa 0,0 l/m 2 min 0 min 45 W/m 6,3 km/h (2 Bft) 97,83 %
21.07.2017 06:26 12,3 C 11,7 C 10,6 C 84 % 0 lf 1013,8 hPa 0,0 l/m 2 min 0 min 49 W/m 6,3 km/h (2 Bft) 100,00 %
21.07.2017 06:28 12,3 C 11,7 C 10,6 C 84 % 0 lf 1013,9 hPa 0,0 l/m 2 min 0 min 52 W/m 6,3 km/h (2 Bft) 97,87 %
21.07.2017 06:30 12,3 C 11,7 C 10,6 C 84 % 0 lf 1013,9 hPa 0,0 l/m 2 min 0 min 55 W/m 6,3 km/h (2 Bft) 97,87 %
21.07.2017 06:32 12,3 C 12,2 C 10,6 C 84 % 0 lf 1013,8 hPa 0,0 l/m 2 min 0 min 58 W/m 6,3 km/h (2 Bft) 97,87 %
21.07.2017 06:34 12,3 C 12,2 C 10,6 C 85 % 0 lf 1013,8 hPa 0,0 l/m 2 min 0 min 62 W/m 4,2 km/h (1 Bft) 100,00 %
21.07.2017 06:36 12,3 C 12,2 C 10,6 C 85 % 0 lf 1013,9 hPa 0,0 l/m 2 min 0 min 63 W/m 4,2 km/h (1 Bft) 100,00 %
21.07.2017 06:38 12,3 C 12,2 C 10,6 C 85 % 0 lf 1013,9 hPa 0,0 l/m 2 min 0 min 70 W/m 6,3 km/h (2 Bft) 100,00 %
21.07.2017 06:40 12,2 C 12,2 C 10,6 C 85 % 0 lf 1013,9 hPa 0,0 l/m 2 min 0 min 76 W/m 6,3 km/h (2 Bft) 95,74 %
21.07.2017 06:42 12,2 C 12,2 C 10,6 C 85 % 0 lf 1014,0 hPa 0,0 l/m 2 min 0 min 80 W/m 4,2 km/h (1 Bft) 97,87 %
21.07.2017 06:44 12,2 C 12,2 C 10,6 C 85 % 0 lf 1014,0 hPa 0,0 l/m 2 min 0 min 84 W/m 6,3 km/h (2 Bft) 97,87 %
21.07.2017 06:46 12,2 C 12,2 C 11,1 C 85 % 0 lf 1014,0 hPa 0,0 l/m 2 min 0 min 90 W/m 8,4 km/h (2 Bft) 95,65 %
21.07.2017 06:48 12,2 C 12,2 C 11,1 C 85 % 0 lf 1014,0 hPa 0,0 l/m 2 min 0 min 94 W/m 6,3 km/h (2 Bft) 97,87 %
21.07.2017 06:50 12,2 C 12,2 C 11,1 C 85 % 0 lf 1014,0 hPa 0,0 l/m 2 min 0 min 99 W/m 8,4 km/h (2 Bft) 95,74 %
21.07.2017 06:52 12,2 C 12,8 C 11,1 C 86 % 0 lf 1014,0 hPa 0,0 l/m 2 min 0 min 104 W/m 6,3 km/h (2 Bft) 97,87 %
21.07.2017 06:54 12,3 C 12,8 C 11,1 C 85 % 0 lf 1014,1 hPa 0,0 l/m 2 min 0 min 110 W/m 4,2 km/h (1 Bft) 97,87 %
21.07.2017 06:56 12,2 C 12,8 C 11,1 C 85 % 0 lf 1014,0 hPa 0,0 l/m 2 min 0 min 115 W/m 4,2 km/h (1 Bft) 97,87 %
21.07.2017 06:58 12,3 C 12,8 C 11,1 C 85 % 0 lf 1014,0 hPa 0,0 l/m 2 min 0 min 119 W/m 6,3 km/h (2 Bft) 95,74 %
21.07.2017 07:00 12,3 C 12,8 C 11,1 C 86 % 0 lf 1014,0 hPa 0,0 l/m 2 min 0 min 128 W/m 8,4 km/h (2 Bft) 95,65 %
21.07.2017 07:02 12,3 C 12,8 C 11,1 C 86 % 0 lf 1014,0 hPa 0,0 l/m 2 min 0 min 134 W/m 4,2 km/h (1 Bft) 95,74 %
21.07.2017 07:04 12,3 C 12,8 C 11,1 C 86 % 0 lf 1014,0 hPa 0,0 l/m 2 min 0 min 140 W/m 4,2 km/h (1 Bft) 93,62 %
21.07.2017 07:06 12,3 C 12,8 C 11,1 C 86 % 0 lf 1014,1 hPa 0,0 l/m 2 min 0 min 146 W/m 8,4 km/h (2 Bft) 97,87 %
21.07.2017 07:08 12,3 C 12,8 C 11,7 C 86 % 0 lf 1014,0 hPa 0,0 l/m 2 min 0 min 153 W/m 6,3 km/h (2 Bft) 95,74 %
21.07.2017 07:10 12,3 C 12,8 C 11,7 C 86 % 0 lf 1014,1 hPa 0,0 l/m 2 min 0 min 160 W/m 6,3 km/h (2 Bft) 97,83 %
21.07.2017 07:12 12,4 C 13,3 C 11,7 C 86 % 0 lf 1014,1 hPa 0,0 l/m 2 min 0 min 166 W/m 8,4 km/h (2 Bft) 95,74 %
21.07.2017 07:14 12,4 C 13,3 C 11,7 C 86 % 0 lf 1014,1 hPa 0,0 l/m 2 min 0 min 164 W/m 6,3 km/h (2 Bft) 93,62 %
21.07.2017 07:16 12,4 C 13,3 C 11,7 C 86 % 0 lf 1014,0 hPa 0,0 l/m 2 min 0 min 162 W/m 4,2 km/h (1 Bft) 97,87 %
21.07.2017 07:18 12,4 C 13,3 C 11,7 C 86 % 0 lf 1014,0 hPa 0,0 l/m 2 min 0 min 182 W/m 4,2 km/h (1 Bft) 91,49 %
21.07.2017 07:20 12,4 C 13,3 C 11,7 C 86 % 0 lf 1014,0 hPa 0,0 l/m 2 min 0 min 191 W/m 6,3 km/h (2 Bft) 95,74 %
21.07.2017 07:22 12,5 C 13,3 C 11,7 C 86 % 0 lf 1014,0 hPa 0,0 l/m 2 min 0 min 198 W/m 4,2 km/h (1 Bft) 93,48 %
21.07.2017 07:24 12,5 C 13,3 C 11,7 C 86 % 0 lf 1014,1 hPa 0,0 l/m 2 min 0 min 202 W/m 8,4 km/h (2 Bft) 91,49 %
21.07.2017 07:26 12,6 C 13,3 C 11,7 C 86 % 0 lf 1014,0 hPa 0,0 l/m 2 min 0 min 206 W/m 8,4 km/h (2 Bft) 91,49 %
21.07.2017 07:28 12,6 C 13,9 C 12,2 C 86 % 0 lf 1014,0 hPa 0,0 l/m 2 min 0 min 204 W/m 8,4 km/h (2 Bft) 93,62 %
21.07.2017 07:30 12,6 C 13,9 C 12,2 C 86 % 0 lf 1014,0 hPa 0,0 l/m 2 min 0 min 199 W/m 6,3 km/h (2 Bft) 93,62 %
21.07.2017 07:32 12,7 C 13,9 C 12,2 C 86 % 0 lf 1014,0 hPa 0,0 l/m 2 min 0 min 218 W/m 10,5 km/h (2 Bft) 91,49 %
21.07.2017 07:34 12,7 C 13,9 C 12,2 C 86 % 0 lf 1014,1 hPa 0,0 l/m 2 min 0 min 224 W/m 8,4 km/h (2 Bft) 93,48 %
21.07.2017 07:36 12,8 C 13,9 C 12,2 C 86 % 0 lf 1014,1 hPa 0,0 l/m 2 min 0 min 238 W/m 6,3 km/h (2 Bft) 91,49 %
21.07.2017 07:38 12,8 C 13,9 C 12,2 C 86 % 0 lf 1014,1 hPa 0,0 l/m 2 min 0 min 244 W/m 10,5 km/h (2 Bft) 91,49 %
21.07.2017 07:40 12,9 C 14,4 C 12,8 C 86 % 0 lf 1014,1 hPa 0,0 l/m 2 min 0 min 249 W/m 8,4 km/h (2 Bft) 95,74 %
21.07.2017 07:42 12,9 C 14,4 C 12,8 C 86 % 0 lf 1014,1 hPa 0,0 l/m 2 min 0 min 255 W/m 8,4 km/h (2 Bft) 95,74 %
21.07.2017 07:44 13,1 C 14,4 C 12,8 C 86 % 0 lf 1014,1 hPa 0,0 l/m 2 min 0 min 261 W/m 8,4 km/h (2 Bft) 95,74 %
21.07.2017 07:46 13,1 C 14,4 C 12,8 C 86 % 0 lf 1014,1 hPa 0,0 l/m 2 min 0 min 265 W/m 4,2 km/h (1 Bft) 95,65 %
21.07.2017 07:48 13,2 C 14,4 C 12,8 C 86 % 0 lf 1014,1 hPa 0,0 l/m 2 min 0 min 261 W/m 8,4 km/h (2 Bft) 95,74 %
21.07.2017 07:50 13,2 C 14,4 C 12,8 C 86 % 0 lf 1014,1 hPa 0,0 l/m 2 min 0 min 267 W/m 8,4 km/h (2 Bft) 95,74 %
21.07.2017 07:52 13,3 C 15,0 C 12,8 C 86 % 0 lf 1014,1 hPa 0,0 l/m 2 min 0 min 257 W/m 6,3 km/h (2 Bft) 95,74 %
21.07.2017 07:54 13,4 C 15,0 C 12,8 C 86 % 0 lf 1014,1 hPa 0,0 l/m 2 min 0 min 252 W/m 8,4 km/h (2 Bft) 97,87 %
21.07.2017 07:56 13,4 C 15,0 C 12,8 C 85 % 0 lf 1014,1 hPa 0,0 l/m 2 min 0 min 271 W/m 6,3 km/h (2 Bft) 97,87 %
21.07.2017 07:58 13,5 C 15,0 C 12,8 C 85 % 0 lf 1014,1 hPa 0,0 l/m 2 min 0 min 291 W/m 6,3 km/h (2 Bft) 97,83 %
21.07.2017 08:00 13,5 C 15,0 C 13,3 C 85 % 0 lf 1014,1 hPa 0,0 l/m 2 min 0 min 295 W/m 6,3 km/h (2 Bft) 95,74 %
21.07.2017 08:02 13,6 C 15,0 C 13,3 C 85 % 0 lf 1014,1 hPa 0,0 l/m 2 min 0 min 296 W/m 6,3 km/h (2 Bft) 97,87 %
21.07.2017 08:04 13,7 C 15,0 C 13,3 C 85 % 0 lf 1014,1 hPa 0,0 l/m 2 min 0 min 302 W/m 4,2 km/h (1 Bft) 97,87 %
21.07.2017 08:06 13,7 C 15,0 C 13,3 C 85 % 0 lf 1014,1 hPa 0,0 l/m 2 min 0 min 301 W/m 6,3 km/h (2 Bft) 97,87 %
21.07.2017 08:08 13,7 C 15,6 C 13,3 C 85 % 0 lf 1014,1 hPa 0,0 l/m 2 min 0 min 303 W/m 6,3 km/h (2 Bft) 93,62 %
21.07.2017 08:10 13,8 C 15,6 C 13,3 C 85 % 0 lf 1014,1 hPa 0,0 l/m 2 min 0 min 302 W/m 8,4 km/h (2 Bft) 97,83 %
21.07.2017 08:12 13,9 C 15,6 C 13,3 C 85 % 0 lf 1014,1 hPa 0,0 l/m 2 min 0 min 315 W/m 8,4 km/h (2 Bft) 100,00 %
21.07.2017 08:14 13,9 C 15,6 C 13,9 C 85 % 0 lf 1014,1 hPa 0,0 l/m 2 min 0 min 314 W/m 8,4 km/h (2 Bft) 100,00 %
21.07.2017 08:16 14,0 C 15,6 C 13,9 C 85 % 0 lf 1014,2 hPa 0,0 l/m 2 min 0 min 314 W/m 10,5 km/h (2 Bft) 97,87 %
21.07.2017 08:18 14,2 C 16,1 C 13,9 C 84 % 0 lf 1014,2 hPa 0,0 l/m 2 min 0 min 329 W/m 8,4 km/h (2 Bft) 100,00 %
21.07.2017 08:20 14,2 C 16,1 C 13,9 C 84 % 0 lf 1014,2 hPa 0,0 l/m 2 min 0 min 350 W/m 10,5 km/h (2 Bft) 97,87 %
21.07.2017 08:22 14,2 C 16,1 C 13,9 C 84 % 0 lf 1014,2 hPa 0,0 l/m 2 min 0 min 354 W/m 10,5 km/h (2 Bft) 100,00 %
21.07.2017 08:24 14,3 C 16,1 C 13,9 C 83 % 0 lf 1014,2 hPa 0,0 l/m 2 min 0 min 362 W/m 10,5 km/h (2 Bft) 97,87 %
21.07.2017 08:26 14,4 C 16,1 C 13,9 C 83 % 0 lf 1014,2 hPa 0,0 l/m 2 min 0 min 371 W/m 10,5 km/h (2 Bft) 97,87 %
21.07.2017 08:28 14,4 C 16,7 C 14,4 C 82 % 0 lf 1014,2 hPa 0,0 l/m 2 min 0 min 378 W/m 10,5 km/h (2 Bft) 100,00 %
21.07.2017 08:30 14,6 C 16,7 C 14,4 C 81 % 0 lf 1014,2 hPa 0,0 l/m 2 min 0 min 380 W/m 6,3 km/h (2 Bft) 97,87 %
21.07.2017 08:32 14,7 C 16,7 C 14,4 C 81 % 0 lf 1014,2 hPa 0,0 l/m 2 min 0 min 391 W/m 6,3 km/h (2 Bft) 97,83 %
21.07.2017 08:34 14,8 C 16,7 C 14,4 C 81 % 0 lf 1014,2 hPa 0,0 l/m 2 min 0 min 384 W/m 8,4 km/h (2 Bft) 100,00 %
21.07.2017 08:36 14,9 C 17,8 C 14,4 C 81 % 0 lf 1014,3 hPa 0,0 l/m 2 min 0 min 378 W/m 8,4 km/h (2 Bft) 97,87 %
21.07.2017 08:38 15,0 C 18,3 C 14,4 C 80 % 0 lf 1014,3 hPa 0,0 l/m 2 min 0 min 379 W/m 8,4 km/h (2 Bft) 100,00 %
21.07.2017 08:40 15,2 C 20,0 C 14,4 C 80 % 0 lf 1014,3 hPa 0,0 l/m 2 min 0 min 385 W/m 8,4 km/h (2 Bft) 100,00 %
21.07.2017 08:42 15,3 C 22,2 C 14,4 C 79 % 0 lf 1014,3 hPa 0,0 l/m 2 min 0 min 378 W/m 10,5 km/h (2 Bft) 100,00 %
21.07.2017 08:44 15,3 C 23,9 C 15,0 C 79 % 0 lf 1014,3 hPa 0,0 l/m 2 min 0 min 393 W/m 8,4 km/h (2 Bft) 100,00 %
21.07.2017 08:46 15,4 C 25,0 C 15,0 C 78 % 0 lf 1014,3 hPa 0,0 l/m 2 min 0 min 417 W/m 10,5 km/h (2 Bft) 100,00 %
21.07.2017 08:48 15,6 C 26,1 C 15,0 C 77 % 0 lf 1014,2 hPa 0,0 l/m 2 min 0 min 421 W/m 10,5 km/h (2 Bft) 97,87 %
21.07.2017 08:50 15,7 C 26,1 C 15,0 C 77 % 0 lf 1014,2 hPa 0,0 l/m 2 min 0 min 433 W/m 8,4 km/h (2 Bft) 100,00 %
21.07.2017 08:52 15,8 C 25,0 C 15,0 C 76 % 0 lf 1014,2 hPa 0,0 l/m 2 min 0 min 413 W/m 8,4 km/h (2 Bft) 93,62 %
21.07.2017 08:54 16,1 C 25,6 C 15,0 C 75 % 0 lf 1014,2 hPa 0,0 l/m 2 min 0 min 448 W/m 6,3 km/h (2 Bft) 100,00 %
21.07.2017 08:56 16,2 C 26,1 C 15,6 C 75 % 0 lf 1014,3 hPa 0,0 l/m 2 min 0 min 453 W/m 6,3 km/h (2 Bft) 100,00 %
21.07.2017 08:58 16,4 C 26,7 C 15,6 C 75 % 0 lf 1014,3 hPa 0,0 l/m 2 min 0 min 458 W/m 6,3 km/h (2 Bft) 97,87 %
21.07.2017 09:00 16,6 C 26,7 C 15,6 C 73 % 0 lf 1014,3 hPa 0,0 l/m 2 min 0 min 465 W/m 10,5 km/h (2 Bft) 97,87 %
21.07.2017 09:02 16,8 C 27,2 C 15,6 C 73 % 0 lf 1014,3 hPa 0,0 l/m 2 min 0 min 470 W/m 8,4 km/h (2 Bft) 97,87 %
21.07.2017 09:04 16,9 C 26,7 C 15,6 C 72 % 0 lf 1014,2 hPa 0,0 l/m 2 min 0 min 465 W/m 10,5 km/h (2 Bft) 97,87 %
21.07.2017 09:06 17,1 C 26,7 C 15,6 C 72 % 0 lf 1014,3 hPa 0,0 l/m 2 min 0 min 460 W/m 8,4 km/h (2 Bft) 95,74 %
21.07.2017 09:08 17,3 C 27,2 C 15,6 C 71 % 0 lf 1014,3 hPa 0,0 l/m 2 min 0 min 476 W/m 4,2 km/h (1 Bft) 97,83 %
21.07.2017 09:10 17,4 C 27,8 C 16,1 C 71 % 0 lf 1014,3 hPa 0,0 l/m 2 min 0 min 469 W/m 4,2 km/h (1 Bft) 97,87 %
21.07.2017 09:12 17,7 C 28,9 C 17,2 C 71 % 0 lf 1014,3 hPa 0,0 l/m 2 min 0 min 478 W/m 10,5 km/h (2 Bft) 95,74 %
21.07.2017 09:14 17,9 C 28,3 C 17,8 C 70 % 0 lf 1014,3 hPa 0,0 l/m 2 min 0 min 491 W/m 8,4 km/h (2 Bft) 93,62 %
21.07.2017 09:16 18,1 C 28,3 C 17,2 C 70 % 0 lf 1014,3 hPa 0,0 l/m 2 min 0 min 486 W/m 6,3 km/h (2 Bft) 91,49 %
21.07.2017 09:18 18,2 C 27,8 C 16,7 C 68 % 0 lf 1014,3 hPa 0,0 l/m 2 min 0 min 498 W/m 10,5 km/h (2 Bft) 95,65 %
21.07.2017 09:20 18,4 C 27,8 C 16,7 C 67 % 0 lf 1014,3 hPa 0,0 l/m 2 min 0 min 510 W/m 6,3 km/h (2 Bft) 95,74 %
21.07.2017 09:22 18,6 C 26,7 C 17,2 C 65 % 0 lf 1014,4 hPa 0,0 l/m 2 min 0 min 517 W/m 6,3 km/h (2 Bft) 95,74 %
21.07.2017 09:24 18,7 C 28,3 C 17,2 C 65 % 0 lf 1014,3 hPa 0,0 l/m 2 min 0 min 527 W/m 4,2 km/h (1 Bft) 95,74 %
21.07.2017 09:26 18,9 C 27,8 C 17,8 C 64 % 0 lf 1014,3 hPa 0,0 l/m 2 min 0 min 531 W/m 10,5 km/h (2 Bft) 95,74 %
21.07.2017 09:28 19,1 C 27,2 C 19,4 C 64 % 0 lf 1014,3 hPa 0,0 l/m 2 min 0 min 531 W/m 6,3 km/h (2 Bft) 95,74 %
21.07.2017 09:30 19,2 C 27,2 C 20,6 C 63 % 0 lf 1014,3 hPa 0,0 l/m 2 min 0 min 534 W/m 6,3 km/h (2 Bft) 95,74 %
21.07.2017 09:32 19,3 C 27,8 C 21,7 C 63 % 0 lf 1014,2 hPa 0,0 l/m 2 min 0 min 545 W/m 6,3 km/h (2 Bft) 93,48 %
21.07.2017 09:34 19,4 C 28,3 C 22,2 C 63 % 0 lf 1014,2 hPa 0,0 l/m 2 min 0 min 552 W/m 8,4 km/h (2 Bft) 93,62 %
21.07.2017 09:36 19,6 C 28,9 C 22,2 C 63 % 0 lf 1014,2 hPa 0,0 l/m 2 min 0 min 554 W/m 6,3 km/h (2 Bft) 93,62 %
21.07.2017 09:38 19,7 C 30,6 C 22,8 C 63 % 0 lf 1014,2 hPa 0,0 l/m 2 min 0 min 566 W/m 6,3 km/h (2 Bft) 89,36 %
21.07.2017 09:40 19,8 C 32,2 C 23,3 C 61 % 0 lf 1014,2 hPa 0,0 l/m 2 min 0 min 596 W/m 6,3 km/h (2 Bft) 93,62 %
21.07.2017 09:42 19,8 C 30,6 C 24,4 C 60 % 0 lf 1014,2 hPa 0,0 l/m 2 min 0 min 596 W/m 4,2 km/h (1 Bft) 93,48 %
21.07.2017 09:44 19,9 C 31,1 C 25,0 C 61 % 0 lf 1014,2 hPa 0,0 l/m 2 min 0 min 592 W/m 0,0 km/h (0 Bft) 93,62 %
21.07.2017 09:46 19,9 C 30,6 C 25,6 C 60 % 0 lf 1014,2 hPa 0,0 l/m 2 min 0 min 597 W/m 6,3 km/h (2 Bft) 93,62 %
21.07.2017 09:48 20,1 C 30,0 C 25,6 C 61 % 0 lf 1014,2 hPa 0,0 l/m 2 min 0 min 601 W/m 8,4 km/h (2 Bft) 95,74 %
21.07.2017 09:50 20,2 C 30,0 C 25,6 C 61 % 0 lf 1014,2 hPa 0,0 l/m 2 min 0 min 606 W/m 8,4 km/h (2 Bft) 93,62 %
21.07.2017 09:52 20,3 C 30,0 C 24,4 C 60 % 0 lf 1014,2 hPa 0,0 l/m 2 min 0 min 610 W/m 8,4 km/h (2 Bft) 91,49 %
21.07.2017 09:54 20,4 C 30,6 C 25,0 C 60 % 0 lf 1014,2 hPa 0,0 l/m 2 min 0 min 615 W/m 4,2 km/h (1 Bft) 93,48 %
21.07.2017 09:56 20,6 C 32,8 C 25,6 C 59 % 0 lf 1014,1 hPa 0,0 l/m 2 min 0 min 619 W/m 4,2 km/h (1 Bft) 93,62 %
21.07.2017 09:58 20,6 C 34,4 C 26,1 C 58 % 0 lf 1014,1 hPa 0,0 l/m 2 min 0 min 623 W/m 6,3 km/h (2 Bft) 91,49 %
21.07.2017 10:00 20,7 C 33,9 C 26,7 C 59 % 0 lf 1014,1 hPa 0,0 l/m 2 min 0 min 628 W/m 8,4 km/h (2 Bft) 95,74 %
21.07.2017 10:02 20,8 C 33,9 C 26,7 C 59 % 0 lf 1014,1 hPa 0,0 l/m 2 min 0 min 632 W/m 6,3 km/h (2 Bft) 97,87 %
21.07.2017 10:04 20,9 C 30,6 C 26,7 C 58 % 0 lf 1014,1 hPa 0,0 l/m 2 min 0 min 636 W/m 12,6 km/h (3 Bft) 95,74 %
21.07.2017 10:06 21,0 C 30,6 C 26,1 C 57 % 0 lf 1014,1 hPa 0,0 l/m 2 min 0 min 641 W/m 6,3 km/h (2 Bft) 95,65 %
21.07.2017 10:08 21,1 C 30,0 C 25,6 C 56 % 0 lf 1014,1 hPa 0,0 l/m 2 min 0 min 645 W/m 10,5 km/h (2 Bft) 97,87 %
21.07.2017 10:10 21,2 C 28,3 C 26,1 C 59 % 0 lf 1014,1 hPa 0,0 l/m 2 min 0 min 649 W/m 10,5 km/h (2 Bft) 95,74 %
21.07.2017 10:12 21,3 C 28,9 C 26,7 C 60 % 0 lf 1014,1 hPa 0,0 l/m 2 min 0 min 653 W/m 10,5 km/h (2 Bft) 97,87 %
21.07.2017 10:14 21,4 C 27,2 C 27,2 C 59 % 0 lf 1014,1 hPa 0,0 l/m 2 min 0 min 658 W/m 14,6 km/h (3 Bft) 91,49 %
21.07.2017 10:16 21,4 C 26,7 C 26,7 C 58 % 0 lf 1014,1 hPa 0,0 l/m 2 min 0 min 662 W/m 14,6 km/h (3 Bft) 95,74 %
21.07.2017 10:18 21,4 C 26,1 C 27,2 C 58 % 0 lf 1014,1 hPa 0,0 l/m 2 min 0 min 666 W/m 10,5 km/h (2 Bft) 97,83 %
21.07.2017 10:20 21,4 C 27,2 C 27,8 C 60 % 0 lf 1014,1 hPa 0,0 l/m 2 min 0 min 670 W/m 8,4 km/h (2 Bft) 100,00 %
21.07.2017 10:22 21,4 C 27,8 C 27,8 C 58 % 0 lf 1014,1 hPa 0,0 l/m 2 min 0 min 674 W/m 10,5 km/h (2 Bft) 97,87 %
21.07.2017 10:24 21,5 C 27,8 C 27,8 C 58 % 0 lf 1014,2 hPa 0,0 l/m 2 min 0 min 678 W/m 6,3 km/h (2 Bft) 100,00 %
21.07.2017 10:26 21,6 C 27,8 C 28,3 C 58 % 0 lf 1014,2 hPa 0,0 l/m 2 min 0 min 682 W/m 6,3 km/h (2 Bft) 95,74 %
21.07.2017 10:28 21,6 C 29,4 C 28,9 C 59 % 0 lf 1014,1 hPa 0,0 l/m 2 min 0 min 686 W/m 12,6 km/h (3 Bft) 100,00 %
21.07.2017 10:30 21,7 C 31,1 C 27,2 C 57 % 0 lf 1014,2 hPa 0,0 l/m 2 min 0 min 690 W/m 12,6 km/h (3 Bft) 95,65 %
21.07.2017 10:32 21,7 C 31,7 C 26,1 C 57 % 0 lf 1014,1 hPa 0,0 l/m 2 min 0 min 694 W/m 10,5 km/h (2 Bft) 97,87 %
21.07.2017 10:34 21,7 C 31,1 C 26,7 C 57 % 0 lf 1014,1 hPa 0,0 l/m 2 min 0 min 698 W/m 6,3 km/h (2 Bft) 95,74 %
21.07.2017 10:36 21,7 C 32,8 C 26,1 C 56 % 0 lf 1014,1 hPa 0,0 l/m 2 min 0 min 701 W/m 14,6 km/h (3 Bft) 97,87 %
21.07.2017 10:38 21,6 C 31,1 C 25,0 C 56 % 0 lf 1014,1 hPa 0,0 l/m 2 min 0 min 705 W/m 12,6 km/h (3 Bft) 97,87 %
21.07.2017 10:40 21,6 C 32,2 C 25,6 C 57 % 0 lf 1014,1 hPa 0,0 l/m 2 min 0 min 709 W/m 8,4 km/h (2 Bft) 93,62 %
21.07.2017 10:42 21,6 C 31,7 C 27,2 C 58 % 0 lf 1014,1 hPa 0,0 l/m 2 min 0 min 721 W/m 10,5 km/h (2 Bft) 97,83 %
21.07.2017 10:44 21,6 C 32,2 C 27,2 C 59 % 0 lf 1014,1 hPa 0,0 l/m 2 min 0 min 704 W/m 12,6 km/h (3 Bft) 95,74 %
21.07.2017 10:46 21,6 C 30,6 C 25,6 C 57 % 0 lf 1014,1 hPa 0,0 l/m 2 min 0 min 714 W/m 25,1 km/h (4 Bft) 95,74 %
21.07.2017 10:48 21,5 C 27,2 C 26,1 C 57 % 0 lf 1014,0 hPa 0,0 l/m 2 min 0 min 771 W/m 20,9 km/h (4 Bft) 97,87 %
21.07.2017 10:50 21,5 C 26,7 C 27,2 C 59 % 0 lf 1014,1 hPa 0,0 l/m 2 min 0 min 727 W/m 16,7 km/h (3 Bft) 97,87 %
21.07.2017 10:52 21,5 C 28,9 C 27,2 C 58 % 0 lf 1014,1 hPa 0,0 l/m 2 min 0 min 731 W/m 12,6 km/h (3 Bft) 93,48 %
21.07.2017 10:54 21,5 C 30,0 C 27,8 C 58 % 0 lf 1014,1 hPa 0,0 l/m 2 min 0 min 734 W/m 10,5 km/h (2 Bft) 95,74 %
21.07.2017 10:56 21,6 C 30,0 C 27,8 C 58 % 0 lf 1014,1 hPa 0,0 l/m 2 min 0 min 738 W/m 10,5 km/h (2 Bft) 97,87 %
21.07.2017 10:58 21,7 C 30,6 C 28,3 C 57 % 0 lf 1014,1 hPa 0,0 l/m 2 min 0 min 741 W/m 12,6 km/h (3 Bft) 97,87 %
21.07.2017 11:00 21,8 C 30,0 C 28,9 C 57 % 0 lf 1014,1 hPa 0,0 l/m 2 min 0 min 745 W/m 12,6 km/h (3 Bft) 97,87 %
21.07.2017 11:02 21,8 C 29,4 C 29,4 C 56 % 0 lf 1014,1 hPa 0,0 l/m 2 min 0 min 748 W/m 8,4 km/h (2 Bft) 97,87 %
21.07.2017 11:04 21,9 C 28,3 C 28,9 C 56 % 0 lf 1014,1 hPa 0,0 l/m 2 min 0 min 751 W/m 8,4 km/h (2 Bft) 97,87 %
21.07.2017 11:06 22,0 C 27,2 C 28,9 C 55 % 0 lf 1014,1 hPa 0,0 l/m 2 min 0 min 755 W/m 12,6 km/h (3 Bft) 95,65 %
21.07.2017 11:08 22,0 C 26,1 C 27,8 C 55 % 0 lf 1014,1 hPa 0,0 l/m 2 min 0 min 758 W/m 10,5 km/h (2 Bft) 97,87 %
21.07.2017 11:10 22,1 C 26,7 C 26,1 C 55 % 0 lf 1014,1 hPa 0,0 l/m 2 min 0 min 761 W/m 12,6 km/h (3 Bft) 97,87 %
21.07.2017 11:12 22,1 C 27,2 C 26,7 C 55 % 0 lf 1014,1 hPa 0,0 l/m 2 min 0 min 876 W/m 12,6 km/h (3 Bft) 97,87 %
21.07.2017 11:14 22,1 C 28,3 C 26,7 C 55 % 0 lf 1014,0 hPa 0,0 l/m 2 min 0 min 768 W/m 6,3 km/h (2 Bft) 97,87 %
21.07.2017 11:16 22,1 C 31,1 C 27,2 C 55 % 0 lf 1014,0 hPa 0,0 l/m 2 min 0 min 771 W/m 12,6 km/h (3 Bft) 97,83 %
21.07.2017 11:18 22,2 C 32,2 C 27,2 C 55 % 0 lf 1014,0 hPa 0,0 l/m 2 min 0 min 774 W/m 10,5 km/h (2 Bft) 97,87 %
21.07.2017 11:20 22,2 C 30,6 C 27,8 C 55 % 0 lf 1014,0 hPa 0,0 l/m 2 min 0 min 777 W/m 12,6 km/h (3 Bft) 97,87 %
21.07.2017 11:22 22,3 C 31,1 C 27,8 C 56 % 0 lf 1014,0 hPa 0,0 l/m 2 min 0 min 780 W/m 16,7 km/h (3 Bft) 97,87 %
21.07.2017 11:24 22,3 C 29,4 C 27,8 C 54 % 0 lf 1013,9 hPa 0,0 l/m 2 min 0 min 783 W/m 10,5 km/h (2 Bft) 95,74 %
21.07.2017 11:26 22,3 C 29,4 C 26,7 C 53 % 0 lf 1014,0 hPa 0,0 l/m 2 min 0 min 786 W/m 14,6 km/h (3 Bft) 97,87 %
21.07.2017 11:28 22,4 C 30,0 C 25,6 C 54 % 0 lf 1014,0 hPa 0,0 l/m 2 min 0 min 789 W/m 14,6 km/h (3 Bft) 97,83 %
21.07.2017 11:30 22,4 C 30,0 C 23,9 C 54 % 0 lf 1013,9 hPa 0,0 l/m 2 min 0 min 792 W/m 10,5 km/h (2 Bft) 100,00 %
21.07.2017 11:32 22,4 C 30,6 C 23,3 C 54 % 0 lf 1013,9 hPa 0,0 l/m 2 min 0 min 904 W/m 6,3 km/h (2 Bft) 100,00 %
21.07.2017 11:34 22,5 C 32,2 C 24,4 C 56 % 0 lf 1013,9 hPa 0,0 l/m 2 min 0 min 797 W/m 10,5 km/h (2 Bft) 97,87 %
21.07.2017 11:36 22,6 C 31,1 C 25,6 C 57 % 0 lf 1013,9 hPa 0,0 l/m 2 min 0 min 800 W/m 10,5 km/h (2 Bft) 97,83 %
21.07.2017 11:38 22,6 C 31,1 C 25,0 C 54 % 0 lf 1013,9 hPa 0,0 l/m 2 min 0 min 803 W/m 8,4 km/h (2 Bft) 97,87 %
21.07.2017 11:40 22,6 C 30,6 C 26,7 C 54 % 0 lf 1013,9 hPa 0,0 l/m 2 min 0 min 404 W/m 6,3 km/h (2 Bft) 97,83 %
21.07.2017 11:42 22,6 C 31,1 C 27,2 C 54 % 0 lf 1013,9 hPa 0,0 l/m 2 min 0 min 822 W/m 10,5 km/h (2 Bft) 97,87 %
21.07.2017 11:44 22,6 C 30,0 C 27,8 C 52 % 0 lf 1014,0 hPa 0,0 l/m 2 min 0 min 824 W/m 10,5 km/h (2 Bft) 97,87 %
21.07.2017 11:46 22,7 C 30,0 C 28,3 C 51 % 0 lf 1013,9 hPa 0,0 l/m 2 min 0 min 834 W/m 10,5 km/h (2 Bft) 97,87 %
21.07.2017 11:48 22,8 C 30,0 C 28,3 C 53 % 0 lf 1013,9 hPa 0,0 l/m 2 min 0 min 844 W/m 10,5 km/h (2 Bft) 95,74 %
21.07.2017 11:50 22,9 C 28,9 C 27,8 C 54 % 0 lf 1013,8 hPa 0,0 l/m 2 min 0 min 812 W/m 12,6 km/h (3 Bft) 95,74 %
21.07.2017 11:52 22,9 C 28,9 C 28,3 C 53 % 0 lf 1013,8 hPa 0,0 l/m 0 min 0 min 225 W/m 10,5 km/h (2 Bft) 97,83 %
21.07.2017 11:54 23,0 C 30,0 C 28,9 C 52 % 0 lf 1013,7 hPa 0,0 l/m 2 min 0 min 644 W/m 12,6 km/h (3 Bft) 97,87 %
21.07.2017 11:56 23,1 C 30,0 C 28,3 C 53 % 0 lf 1013,8 hPa 0,0 l/m 2 min 0 min 896 W/m 18,8 km/h (3 Bft) 97,87 %
21.07.2017 11:58 23,2 C 27,8 C 27,2 C 51 % 0 lf 1013,8 hPa 0,0 l/m 2 min 0 min 861 W/m 14,6 km/h (3 Bft) 97,87 %
21.07.2017 12:00 23,2 C 27,8 C 28,3 C 48 % 0 lf 1013,7 hPa 0,0 l/m 2 min 0 min 988 W/m 14,6 km/h (3 Bft) 95,74 %
21.07.2017 12:02 23,1 C 25,6 C 26,7 C 48 % 0 lf 1013,7 hPa 0,0 l/m 2 min 0 min 988 W/m 8,4 km/h (2 Bft) 100,00 %
21.07.2017 12:04 23,1 C 26,1 C 25,6 C 50 % 0 lf 1013,7 hPa 0,0 l/m 2 min 0 min 988 W/m 12,6 km/h (3 Bft) 95,65 %
21.07.2017 12:06 23,1 C 28,3 C 27,2 C 50 % 0 lf 1013,7 hPa 0,0 l/m 2 min 0 min 961 W/m 14,6 km/h (3 Bft) 95,74 %
21.07.2017 12:10 23,2 C 30,0 C 28,3 C 50 % 0 lf 1013,7 hPa 0,0 l/m 4 min 0 min 1104 W/m 18,8 km/h (3 Bft) 95,79 %
21.07.2017 12:12 23,2 C 31,1 C 28,3 C 50 % 0 lf 1013,7 hPa 0,0 l/m 2 min 0 min 1005 W/m 12,6 km/h (3 Bft) 93,62 %
21.07.2017 12:14 23,2 C 31,1 C 29,4 C 49 % 0 lf 1013,7 hPa 0,0 l/m 2 min 0 min 845 W/m 8,4 km/h (2 Bft) 91,30 %
21.07.2017 12:16 23,3 C 31,1 C 30,0 C 50 % 0 lf 1013,7 hPa 0,0 l/m 2 min 0 min 847 W/m 12,6 km/h (3 Bft) 95,74 %
21.07.2017 12:18 23,4 C 32,2 C 28,9 C 50 % 0 lf 1013,6 hPa 0,0 l/m 2 min 0 min 849 W/m 10,5 km/h (2 Bft) 93,62 %
21.07.2017 12:20 23,4 C 28,9 C 26,7 C 49 % 0 lf 1013,6 hPa 0,0 l/m 2 min 0 min 744 W/m 6,3 km/h (2 Bft) 95,74 %
21.07.2017 12:22 23,3 C 30,6 C 26,7 C 51 % 0 lf 1013,6 hPa 0,0 l/m 2 min 0 min 745 W/m 8,4 km/h (2 Bft) 95,74 %
21.07.2017 12:24 23,3 C 28,9 C 26,1 C 50 % 0 lf 1013,5 hPa 0,0 l/m 2 min 0 min 746 W/m 10,5 km/h (2 Bft) 89,36 %
21.07.2017 12:26 23,3 C 30,0 C 26,7 C 51 % 0 lf 1013,5 hPa 0,0 l/m 2 min 0 min 747 W/m 10,5 km/h (2 Bft) 95,65 %
21.07.2017 12:28 23,3 C 29,4 C 28,3 C 49 % 0 lf 1013,5 hPa 0,0 l/m 2 min 0 min 748 W/m 8,4 km/h (2 Bft) 95,74 %
21.07.2017 12:30 23,3 C 29,4 C 28,9 C 48 % 0 lf 1013,5 hPa 0,0 l/m 2 min 0 min 749 W/m 6,3 km/h (2 Bft) 93,62 %
21.07.2017 12:32 23,4 C 29,4 C 29,4 C 48 % 0 lf 1013,5 hPa 0,0 l/m 2 min 0 min 750 W/m 8,4 km/h (2 Bft) 93,62 %
21.07.2017 12:34 23,4 C 30,6 C 30,0 C 49 % 0 lf 1013,5 hPa 0,0 l/m 2 min 0 min 751 W/m 14,6 km/h (3 Bft) 97,87 %
21.07.2017 12:36 23,4 C 29,4 C 30,0 C 49 % 0 lf 1013,5 hPa 0,0 l/m 2 min 0 min 732 W/m 12,6 km/h (3 Bft) 95,74 %
21.07.2017 12:38 23,4 C 30,6 C 29,4 C 50 % 0 lf 1013,5 hPa 0,0 l/m 2 min 0 min 865 W/m 10,5 km/h (2 Bft) 95,74 %
21.07.2017 12:40 23,5 C 30,6 C 28,9 C 50 % 0 lf 1013,4 hPa 0,0 l/m 2 min 0 min 866 W/m 14,6 km/h (3 Bft) 91,30 %
21.07.2017 12:42 23,6 C 30,6 C 27,8 C 49 % 0 lf 1013,5 hPa 0,0 l/m 2 min 0 min 868 W/m 14,6 km/h (3 Bft) 91,49 %
21.07.2017 12:44 23,6 C 32,2 C 27,8 C 50 % 0 lf 1013,5 hPa 0,0 l/m 2 min 0 min 869 W/m 14,6 km/h (3 Bft) 95,74 %
21.07.2017 12:46 23,7 C 31,7 C 27,2 C 50 % 0 lf 1013,5 hPa 0,0 l/m 2 min 0 min 870 W/m 12,6 km/h (3 Bft) 95,74 %
21.07.2017 12:48 23,8 C 32,8 C 26,7 C 52 % 0 lf 1013,5 hPa 0,0 l/m 2 min 0 min 872 W/m 16,7 km/h (3 Bft) 97,87 %
21.07.2017 12:50 23,9 C 35,0 C 26,1 C 52 % 0 lf 1013,4 hPa 0,0 l/m 2 min 0 min 873 W/m 10,5 km/h (2 Bft) 97,83 %
21.07.2017 12:52 24,1 C 35,0 C 26,1 C 50 % 0 lf 1013,4 hPa 0,0 l/m 2 min 0 min 874 W/m 12,6 km/h (3 Bft) 95,74 %
21.07.2017 12:54 24,2 C 34,4 C 26,1 C 53 % 0 lf 1013,4 hPa 0,0 l/m 2 min 0 min 875 W/m 8,4 km/h (2 Bft) 97,87 %
21.07.2017 12:56 24,3 C 33,9 C 26,7 C 51 % 0 lf 1013,4 hPa 0,0 l/m 2 min 0 min 876 W/m 8,4 km/h (2 Bft) 97,87 %
21.07.2017 12:58 24,4 C 32,8 C 26,7 C 51 % 0 lf 1013,4 hPa 0,0 l/m 2 min 0 min 877 W/m 12,6 km/h (3 Bft) 95,74 %
21.07.2017 13:00 24,5 C 33,3 C 26,1 C 48 % 0 lf 1013,3 hPa 0,0 l/m 2 min 0 min 878 W/m 6,3 km/h (2 Bft) 97,87 %
21.07.2017 13:02 24,6 C 32,8 C 26,1 C 48 % 0 lf 1013,4 hPa 0,0 l/m 2 min 0 min 879 W/m 10,5 km/h (2 Bft) 95,65 %
21.07.2017 13:04 24,6 C 32,8 C 26,7 C 50 % 0 lf 1013,4 hPa 0,0 l/m 2 min 0 min 880 W/m 14,6 km/h (3 Bft) 97,87 %
21.07.2017 13:06 24,7 C 30,6 C 26,1 C 47 % 0 lf 1013,3 hPa 0,0 l/m 2 min 0 min 881 W/m 8,4 km/h (2 Bft) 97,87 %
21.07.2017 13:08 24,7 C 27,8 C 25,6 C 48 % 0 lf 1013,3 hPa 0,0 l/m 2 min 0 min 881 W/m 12,6 km/h (3 Bft) 100,00 %
21.07.2017 13:10 24,6 C 26,1 C 24,4 C 47 % 0 lf 1013,3 hPa 0,0 l/m 2 min 0 min 1155 W/m 10,5 km/h (2 Bft) 97,87 %
21.07.2017 13:12 24,6 C 25,6 C 24,4 C 49 % 0 lf 1013,3 hPa 0,0 l/m 2 min 0 min 958 W/m 8,4 km/h (2 Bft) 97,87 %
21.07.2017 13:14 24,5 C 28,3 C 25,0 C 49 % 0 lf 1013,3 hPa 0,0 l/m 2 min 0 min 883 W/m 8,4 km/h (2 Bft) 97,83 %
21.07.2017 13:16 24,5 C 29,4 C 25,6 C 49 % 0 lf 1013,2 hPa 0,0 l/m 2 min 0 min 884 W/m 8,4 km/h (2 Bft) 97,87 %
21.07.2017 13:18 24,5 C 30,6 C 25,6 C 50 % 0 lf 1013,2 hPa 0,0 l/m 2 min 0 min 884 W/m 10,5 km/h (2 Bft) 100,00 %
21.07.2017 13:20 24,5 C 31,7 C 26,1 C 51 % 0 lf 1013,2 hPa 0,0 l/m 2 min 0 min 885 W/m 6,3 km/h (2 Bft) 100,00 %
21.07.2017 13:22 24,6 C 32,8 C 26,1 C 49 % 0 lf 1013,2 hPa 0,0 l/m 2 min 0 min 885 W/m 8,4 km/h (2 Bft) 95,74 %
21.07.2017 13:24 24,7 C 32,8 C 26,1 C 48 % 0 lf 1013,2 hPa 0,0 l/m 2 min 0 min 886 W/m 14,6 km/h (3 Bft) 100,00 %
21.07.2017 13:26 24,7 C 33,9 C 26,1 C 50 % 0 lf 1013,1 hPa 0,0 l/m 2 min 0 min 886 W/m 12,6 km/h (3 Bft) 100,00 %
21.07.2017 13:28 24,8 C 32,8 C 26,1 C 49 % 0 lf 1013,1 hPa 0,0 l/m 2 min 0 min 886 W/m 14,6 km/h (3 Bft) 97,87 %
21.07.2017 13:30 24,8 C 31,7 C 26,1 C 48 % 0 lf 1013,1 hPa 0,0 l/m 2 min 0 min 1037 W/m 16,7 km/h (3 Bft) 97,87 %
21.07.2017 13:32 24,8 C 30,6 C 25,6 C 47 % 0 lf 1013,1 hPa 0,0 l/m 2 min 0 min 887 W/m 16,7 km/h (3 Bft) 100,00 %
21.07.2017 13:34 24,8 C 30,0 C 25,6 C 47 % 0 lf 1013,1 hPa 0,0 l/m 2 min 0 min 887 W/m 20,9 km/h (4 Bft) 97,87 %
21.07.2017 13:36 24,9 C 31,7 C 25,6 C 49 % 0 lf 1013,0 hPa 0,0 l/m 2 min 0 min 887 W/m 8,4 km/h (2 Bft) 100,00 %
21.07.2017 13:38 24,9 C 32,8 C 25,6 C 50 % 0 lf 1013,0 hPa 0,0 l/m 2 min 0 min 887 W/m 6,3 km/h (2 Bft) 97,83 %
21.07.2017 13:40 24,9 C 31,1 C 25,0 C 47 % 0 lf 1013,0 hPa 0,0 l/m 2 min 0 min 887 W/m 8,4 km/h (2 Bft) 93,62 %
21.07.2017 13:42 24,9 C 31,1 C 25,0 C 48 % 0 lf 1012,9 hPa 0,0 l/m 2 min 0 min 887 W/m 10,5 km/h (2 Bft) 97,87 %
21.07.2017 13:44 25,0 C 31,7 C 25,0 C 48 % 0 lf 1012,9 hPa 0,0 l/m 2 min 0 min 887 W/m 8,4 km/h (2 Bft) 100,00 %
21.07.2017 13:46 25,1 C 32,2 C 25,0 C 49 % 0 lf 1012,9 hPa 0,0 l/m 2 min 0 min 887 W/m 10,5 km/h (2 Bft) 97,87 %
21.07.2017 13:48 25,1 C 33,9 C 25,0 C 51 % 0 lf 1012,9 hPa 0,0 l/m 2 min 0 min 887 W/m 8,4 km/h (2 Bft) 91,49 %
21.07.2017 13:50 25,1 C 34,4 C 25,0 C 49 % 0 lf 1012,9 hPa 0,0 l/m 2 min 0 min 1162 W/m 10,5 km/h (2 Bft) 93,48 %
21.07.2017 13:52 25,2 C 32,8 C 24,4 C 49 % 0 lf 1012,9 hPa 0,0 l/m 2 min 0 min 750 W/m 6,3 km/h (2 Bft) 95,74 %
21.07.2017 13:54 25,2 C 30,0 C 24,4 C 47 % 0 lf 1012,9 hPa 0,0 l/m 0 min 0 min 280 W/m 8,4 km/h (2 Bft) 95,74 %
21.07.2017 13:56 25,1 C 29,4 C 24,4 C 47 % 0 lf 1012,8 hPa 0,0 l/m 0 min 0 min 287 W/m 10,5 km/h (2 Bft) 95,74 %
21.07.2017 13:58 25,1 C 30,0 C 24,4 C 48 % 0 lf 1012,8 hPa 0,0 l/m 2 min 0 min 1123 W/m 12,6 km/h (3 Bft) 95,74 %
21.07.2017 14:00 25,1 C 29,4 C 24,4 C 48 % 0 lf 1012,9 hPa 0,0 l/m 2 min 0 min 885 W/m 10,5 km/h (2 Bft) 95,74 %
21.07.2017 14:02 25,1 C 31,1 C 25,6 C 51 % 0 lf 1012,8 hPa 0,0 l/m 2 min 0 min 885 W/m 12,6 km/h (3 Bft) 93,48 %
21.07.2017 14:04 25,1 C 31,1 C 26,1 C 50 % 0 lf 1012,8 hPa 0,0 l/m 2 min 0 min 884 W/m 10,5 km/h (2 Bft) 89,36 %
21.07.2017 14:06 25,1 C 31,1 C 26,7 C 50 % 0 lf 1012,8 hPa 0,0 l/m 2 min 0 min 884 W/m 18,8 km/h (3 Bft) 91,49 %
21.07.2017 14:08 25,1 C 28,9 C 25,6 C 47 % 0 lf 1012,8 hPa 0,0 l/m 2 min 0 min 1174 W/m 12,6 km/h (3 Bft) 95,74 %
21.07.2017 14:10 25,1 C 27,8 C 25,6 C 47 % 0 lf 1012,7 hPa 0,0 l/m 2 min 0 min 883 W/m 8,4 km/h (2 Bft) 93,62 %
21.07.2017 14:12 25,0 C 27,8 C 27,2 C 48 % 0 lf 1012,8 hPa 0,0 l/m 2 min 0 min 882 W/m 14,6 km/h (3 Bft) 95,65 %
21.07.2017 14:14 24,9 C 26,7 C 26,7 C 48 % 0 lf 1012,8 hPa 0,0 l/m 2 min 0 min 881 W/m 18,8 km/h (3 Bft) 95,74 %
21.07.2017 14:16 24,7 C 25,6 C 25,6 C 48 % 0 lf 1012,8 hPa 0,0 l/m 2 min 0 min 876 W/m 12,6 km/h (3 Bft) 95,74 %
21.07.2017 14:18 24,7 C 27,2 C 26,7 C 51 % 0 lf 1012,7 hPa 0,0 l/m 2 min 0 min 747 W/m 12,6 km/h (3 Bft) 93,62 %
21.07.2017 14:20 24,6 C 28,9 C 28,9 C 50 % 0 lf 1012,8 hPa 0,0 l/m 2 min 0 min 1164 W/m 10,5 km/h (2 Bft) 95,74 %
21.07.2017 14:22 24,6 C 28,9 C 30,0 C 48 % 0 lf 1012,7 hPa 0,0 l/m 2 min 0 min 877 W/m 12,6 km/h (3 Bft) 100,00 %
21.07.2017 14:24 24,5 C 28,9 C 27,8 C 47 % 0 lf 1012,7 hPa 0,0 l/m 2 min 0 min 876 W/m 10,5 km/h (2 Bft) 95,65 %
21.07.2017 14:26 24,4 C 28,3 C 27,2 C 49 % 0 lf 1012,6 hPa 0,0 l/m 2 min 0 min 875 W/m 12,6 km/h (3 Bft) 97,87 %
21.07.2017 14:28 24,4 C 28,9 C 27,8 C 49 % 0 lf 1012,6 hPa 0,0 l/m 2 min 0 min 1023 W/m 8,4 km/h (2 Bft) 97,87 %
21.07.2017 14:30 24,4 C 28,9 C 30,0 C 49 % 0 lf 1012,6 hPa 0,0 l/m 2 min 0 min 873 W/m 6,3 km/h (2 Bft) 97,87 %
21.07.2017 14:32 24,4 C 29,4 C 31,1 C 48 % 0 lf 1012,6 hPa 0,0 l/m 2 min 0 min 872 W/m 10,5 km/h (2 Bft) 97,87 %
21.07.2017 14:34 24,4 C 30,0 C 32,2 C 51 % 0 lf 1012,6 hPa 0,0 l/m 2 min 0 min 871 W/m 10,5 km/h (2 Bft) 97,87 %
21.07.2017 14:36 24,4 C 30,6 C 33,3 C 50 % 0 lf 1012,6 hPa 0,0 l/m 2 min 0 min 870 W/m 8,4 km/h (2 Bft) 97,83 %
21.07.2017 14:38 24,4 C 30,6 C 32,8 C 49 % 0 lf 1012,6 hPa 0,0 l/m 2 min 0 min 868 W/m 8,4 km/h (2 Bft) 95,74 %
21.07.2017 14:40 24,6 C 31,1 C 33,3 C 50 % 0 lf 1012,5 hPa 0,0 l/m 2 min 0 min 867 W/m 4,2 km/h (1 Bft) 93,62 %
21.07.2017 14:42 24,7 C 32,8 C 33,3 C 50 % 0 lf 1012,5 hPa 0,0 l/m 2 min 0 min 866 W/m 8,4 km/h (2 Bft) 97,87 %
21.07.2017 14:44 24,8 C 33,9 C 33,9 C 53 % 0 lf 1012,5 hPa 0,0 l/m 2 min 0 min 864 W/m 10,5 km/h (2 Bft) 97,87 %
21.07.2017 14:46 24,9 C 32,8 C 33,9 C 50 % 0 lf 1012,5 hPa 0,0 l/m 2 min 0 min 863 W/m 8,4 km/h (2 Bft) 97,87 %
21.07.2017 14:48 25,0 C 31,1 C 32,8 C 50 % 0 lf 1012,5 hPa 0,0 l/m 2 min 0 min 861 W/m 8,4 km/h (2 Bft) 97,83 %
21.07.2017 14:50 25,1 C 30,0 C 33,3 C 49 % 0 lf 1012,4 hPa 0,0 l/m 2 min 0 min 860 W/m 14,6 km/h (3 Bft) 95,74 %
21.07.2017 14:52 25,1 C 27,8 C 32,2 C 47 % 0 lf 1012,4 hPa 0,0 l/m 2 min 0 min 979 W/m 8,4 km/h (2 Bft) 97,87 %
21.07.2017 14:54 25,1 C 27,8 C 31,1 C 48 % 0 lf 1012,3 hPa 0,0 l/m 2 min 0 min 870 W/m 8,4 km/h (2 Bft) 95,74 %
21.07.2017 14:56 25,1 C 26,7 C 30,0 C 49 % 0 lf 1012,4 hPa 0,0 l/m 2 min 0 min 849 W/m 18,8 km/h (3 Bft) 97,87 %
21.07.2017 14:58 25,0 C 26,1 C 28,3 C 49 % 0 lf 1012,4 hPa 0,0 l/m 2 min 0 min 583 W/m 18,8 km/h (3 Bft) 95,65 %
21.07.2017 15:00 24,9 C 26,7 C 30,0 C 49 % 0 lf 1012,3 hPa 0,0 l/m 2 min 0 min 562 W/m 20,9 km/h (4 Bft) 97,87 %
21.07.2017 15:02 24,8 C 27,2 C 30,0 C 49 % 0 lf 1012,4 hPa 0,0 l/m 2 min 0 min 889 W/m 14,6 km/h (3 Bft) 100,00 %
21.07.2017 15:04 24,8 C 27,2 C 28,3 C 48 % 0 lf 1012,3 hPa 0,0 l/m 2 min 0 min 889 W/m 12,6 km/h (3 Bft) 97,87 %
21.07.2017 15:06 24,7 C 28,3 C 29,4 C 49 % 0 lf 1012,3 hPa 0,0 l/m 2 min 0 min 878 W/m 16,7 km/h (3 Bft) 97,87 %
21.07.2017 15:08 24,6 C 29,4 C 30,6 C 50 % 0 lf 1012,3 hPa 0,0 l/m 2 min 0 min 865 W/m 16,7 km/h (3 Bft) 95,74 %
21.07.2017 15:10 24,5 C 29,4 C 32,8 C 52 % 0 lf 1012,3 hPa 0,0 l/m 2 min 0 min 843 W/m 6,3 km/h (2 Bft) 97,87 %
21.07.2017 15:12 24,5 C 30,0 C 33,9 C 52 % 0 lf 1012,3 hPa 0,0 l/m 2 min 0 min 839 W/m 14,6 km/h (3 Bft) 97,83 %
21.07.2017 15:14 24,6 C 30,6 C 34,4 C 53 % 0 lf 1012,2 hPa 0,0 l/m 2 min 0 min 838 W/m 10,5 km/h (2 Bft) 95,74 %
21.07.2017 15:16 24,7 C 30,0 C 35,0 C 52 % 0 lf 1012,1 hPa 0,0 l/m 2 min 0 min 830 W/m 14,6 km/h (3 Bft) 95,74 %
21.07.2017 15:18 24,7 C 29,4 C 33,9 C 51 % 0 lf 1012,1 hPa 0,0 l/m 2 min 0 min 823 W/m 14,6 km/h (3 Bft) 97,87 %
21.07.2017 15:20 24,8 C 30,0 C 34,4 C 52 % 0 lf 1012,1 hPa 0,0 l/m 2 min 0 min 813 W/m 14,6 km/h (3 Bft) 97,87 %
21.07.2017 15:22 24,9 C 30,6 C 35,0 C 51 % 0 lf 1012,0 hPa 0,0 l/m 2 min 0 min 811 W/m 4,2 km/h (1 Bft) 97,83 %
21.07.2017 15:24 25,1 C 30,0 C 35,0 C 50 % 0 lf 1012,1 hPa 0,0 l/m 2 min 0 min 803 W/m 16,7 km/h (3 Bft) 97,87 %
21.07.2017 15:26 25,1 C 30,0 C 34,4 C 49 % 0 lf 1012,0 hPa 0,0 l/m 2 min 0 min 809 W/m 20,9 km/h (4 Bft) 97,87 %
21.07.2017 15:28 25,1 C 28,9 C 33,9 C 49 % 0 lf 1012,0 hPa 0,0 l/m 2 min 0 min 810 W/m 25,1 km/h (4 Bft) 95,83 %
21.07.2017 15:30 25,2 C 28,9 C 32,8 C 48 % 0 lf 1011,9 hPa 0,0 l/m 2 min 0 min 780 W/m 18,8 km/h (3 Bft) 95,74 %
21.07.2017 15:32 25,3 C 30,0 C 33,9 C 51 % 0 lf 1011,9 hPa 0,0 l/m 2 min 0 min 783 W/m 12,6 km/h (3 Bft) 97,87 %
21.07.2017 15:34 25,3 C 28,3 C 32,2 C 48 % 0 lf 1011,9 hPa 0,0 l/m 2 min 0 min 784 W/m 10,5 km/h (2 Bft) 95,65 %
21.07.2017 15:36 25,3 C 28,3 C 33,3 C 49 % 0 lf 1011,8 hPa 0,0 l/m 2 min 0 min 893 W/m 14,6 km/h (3 Bft) 95,74 %
21.07.2017 15:38 25,3 C 30,0 C 33,9 C 49 % 0 lf 1011,8 hPa 0,0 l/m 2 min 0 min 809 W/m 14,6 km/h (3 Bft) 95,74 %
21.07.2017 15:40 25,4 C 30,0 C 34,4 C 49 % 0 lf 1011,8 hPa 0,0 l/m 2 min 0 min 807 W/m 16,7 km/h (3 Bft) 97,87 %
21.07.2017 15:42 25,4 C 29,4 C 35,0 C 50 % 0 lf 1011,8 hPa 0,0 l/m 2 min 0 min 804 W/m 16,7 km/h (3 Bft) 97,87 %
21.07.2017 15:44 25,4 C 28,9 C 34,4 C 50 % 0 lf 1011,8 hPa 0,0 l/m 2 min 0 min 801 W/m 16,7 km/h (3 Bft) 95,74 %
21.07.2017 15:46 25,6 C 29,4 C 34,4 C 49 % 0 lf 1011,8 hPa 0,0 l/m 2 min 0 min 799 W/m 14,6 km/h (3 Bft) 97,83 %
21.07.2017 15:48 25,6 C 28,9 C 34,4 C 48 % 0 lf 1011,9 hPa 0,0 l/m 2 min 0 min 796 W/m 10,5 km/h (2 Bft) 95,74 %
21.07.2017 15:50 25,6 C 30,0 C 35,0 C 50 % 0 lf 1011,7 hPa 0,0 l/m 2 min 0 min 793 W/m 6,3 km/h (2 Bft) 95,74 %
21.07.2017 15:52 25,6 C 29,4 C 35,6 C 48 % 0 lf 1011,7 hPa 0,0 l/m 2 min 0 min 790 W/m 6,3 km/h (2 Bft) 93,62 %
21.07.2017 15:54 25,7 C 29,4 C 35,0 C 48 % 0 lf 1011,8 hPa 0,0 l/m 2 min 0 min 787 W/m 14,6 km/h (3 Bft) 95,74 %
21.07.2017 15:56 25,7 C 29,4 C 35,0 C 48 % 0 lf 1011,7 hPa 0,0 l/m 2 min 0 min 784 W/m 10,5 km/h (2 Bft) 91,43 %
21.07.2017 15:58 25,7 C 28,9 C 35,6 C 49 % 0 lf 1011,6 hPa 0,0 l/m 2 min 0 min 781 W/m 14,6 km/h (3 Bft) 95,00 %
21.07.2017 16:00 25,7 C 28,3 C 35,6 C 50 % 0 lf 1011,7 hPa 0,0 l/m 2 min 0 min 778 W/m 14,6 km/h (3 Bft) 95,74 %
21.07.2017 16:02 25,7 C 28,3 C 35,6 C 48 % 0 lf 1011,7 hPa 0,0 l/m 2 min 0 min 775 W/m 8,4 km/h (2 Bft) 95,74 %
21.07.2017 16:04 25,7 C 28,3 C 35,6 C 48 % 0 lf 1011,5 hPa 0,0 l/m 2 min 0 min 772 W/m 8,4 km/h (2 Bft) 95,74 %
21.07.2017 16:06 25,7 C 28,3 C 35,6 C 48 % 0 lf 1011,5 hPa 0,0 l/m 2 min 0 min 769 W/m 8,4 km/h (2 Bft) 95,74 %
21.07.2017 16:08 25,6 C 28,3 C 35,6 C 51 % 0 lf 1011,5 hPa 0,0 l/m 2 min 0 min 766 W/m 14,6 km/h (3 Bft) 97,83 %
21.07.2017 16:10 25,7 C 28,3 C 35,6 C 49 % 0 lf 1011,5 hPa 0,0 l/m 2 min 0 min 763 W/m 20,9 km/h (4 Bft) 93,62 %
21.07.2017 16:12 25,7 C 28,3 C 35,0 C 49 % 0 lf 1011,5 hPa 0,0 l/m 2 min 0 min 759 W/m 18,8 km/h (3 Bft) 93,62 %
21.07.2017 16:14 25,7 C 28,9 C 35,6 C 49 % 0 lf 1011,5 hPa 0,0 l/m 2 min 0 min 756 W/m 14,6 km/h (3 Bft) 95,74 %
21.07.2017 16:16 25,8 C 28,9 C 35,0 C 49 % 0 lf 1011,5 hPa 0,0 l/m 2 min 0 min 753 W/m 16,7 km/h (3 Bft) 95,74 %
21.07.2017 16:18 25,8 C 28,3 C 35,0 C 50 % 0 lf 1011,5 hPa 0,0 l/m 2 min 0 min 750 W/m 14,6 km/h (3 Bft) 95,74 %
21.07.2017 16:20 25,9 C 28,3 C 34,4 C 50 % 0 lf 1011,5 hPa 0,0 l/m 2 min 0 min 746 W/m 25,1 km/h (4 Bft) 97,83 %
21.07.2017 16:22 26,0 C 27,8 C 35,0 C 48 % 0 lf 1011,4 hPa 0,0 l/m 2 min 0 min 743 W/m 16,7 km/h (3 Bft) 95,74 %
21.07.2017 16:24 26,0 C 27,8 C 33,9 C 48 % 0 lf 1011,4 hPa 0,0 l/m 2 min 0 min 739 W/m 16,7 km/h (3 Bft) 100,00 %
21.07.2017 16:26 26,1 C 27,2 C 32,8 C 48 % 0 lf 1011,3 hPa 0,0 l/m 2 min 0 min 736 W/m 20,9 km/h (4 Bft) 95,74 %
21.07.2017 16:28 26,1 C 26,7 C 32,2 C 48 % 0 lf 1011,3 hPa 0,0 l/m 2 min 0 min 732 W/m 14,6 km/h (3 Bft) 100,00 %
21.07.2017 16:30 26,0 C 26,7 C 32,2 C 48 % 0 lf 1011,3 hPa 0,0 l/m 2 min 0 min 729 W/m 16,7 km/h (3 Bft) 100,00 %
21.07.2017 16:32 26,1 C 26,7 C 33,9 C 49 % 0 lf 1011,2 hPa 0,0 l/m 2 min 0 min 725 W/m 12,6 km/h (3 Bft) 100,00 %
21.07.2017 16:34 26,1 C 27,2 C 34,4 C 49 % 0 lf 1011,3 hPa 0,0 l/m 2 min 0 min 722 W/m 12,6 km/h (3 Bft) 100,00 %
21.07.2017 16:36 26,1 C 27,2 C 33,3 C 48 % 0 lf 1011,2 hPa 0,0 l/m 2 min 0 min 718 W/m 10,5 km/h (2 Bft) 95,74 %
21.07.2017 16:38 26,1 C 26,7 C 33,9 C 48 % 0 lf 1011,2 hPa 0,0 l/m 2 min 0 min 714 W/m 16,7 km/h (3 Bft) 93,62 %
21.07.2017 16:40 26,2 C 26,1 C 33,9 C 48 % 0 lf 1011,1 hPa 0,0 l/m 2 min 0 min 710 W/m 16,7 km/h (3 Bft) 100,00 %
21.07.2017 16:42 26,2 C 26,1 C 33,9 C 47 % 0 lf 1011,1 hPa 0,0 l/m 2 min 0 min 707 W/m 8,4 km/h (2 Bft) 100,00 %
21.07.2017 16:44 26,2 C 26,7 C 33,3 C 48 % 0 lf 1011,1 hPa 0,0 l/m 2 min 0 min 703 W/m 6,3 km/h (2 Bft) 97,83 %
21.07.2017 16:46 26,2 C 27,2 C 32,2 C 48 % 0 lf 1011,0 hPa 0,0 l/m 2 min 0 min 699 W/m 14,6 km/h (3 Bft) 97,87 %
21.07.2017 16:48 26,3 C 27,2 C 30,0 C 48 % 0 lf 1011,0 hPa 0,0 l/m 2 min 0 min 695 W/m 14,6 km/h (3 Bft) 100,00 %
21.07.2017 16:50 26,3 C 27,2 C 28,3 C 47 % 0 lf 1010,9 hPa 0,0 l/m 2 min 0 min 691 W/m 6,3 km/h (2 Bft) 100,00 %
21.07.2017 16:52 26,4 C 27,2 C 27,2 C 48 % 0 lf 1010,9 hPa 0,0 l/m 2 min 0 min 687 W/m 12,6 km/h (3 Bft) 100,00 %
21.07.2017 16:54 26,6 C 27,2 C 27,2 C 49 % 0 lf 1010,9 hPa 0,0 l/m 2 min 0 min 684 W/m 16,7 km/h (3 Bft) 97,87 %
21.07.2017 16:56 26,6 C 26,7 C 26,7 C 47 % 0 lf 1010,8 hPa 0,0 l/m 2 min 0 min 680 W/m 16,7 km/h (3 Bft) 91,30 %
21.07.2017 16:58 26,6 C 26,7 C 26,7 C 48 % 0 lf 1010,9 hPa 0,0 l/m 2 min 0 min 676 W/m 20,9 km/h (4 Bft) 97,87 %
21.07.2017 17:00 26,6 C 26,7 C 26,7 C 47 % 0 lf 1010,9 hPa 0,0 l/m 2 min 0 min 672 W/m 16,7 km/h (3 Bft) 95,74 %
21.07.2017 17:02 26,6 C 26,7 C 26,7 C 48 % 0 lf 1010,8 hPa 0,0 l/m 2 min 0 min 667 W/m 14,6 km/h (3 Bft) 93,62 %
21.07.2017 17:04 26,6 C 26,7 C 26,1 C 47 % 0 lf 1010,8 hPa 0,0 l/m 2 min 0 min 663 W/m 12,6 km/h (3 Bft) 97,87 %
21.07.2017 17:06 26,6 C 26,7 C 26,1 C 47 % 0 lf 1010,7 hPa 0,0 l/m 2 min 0 min 659 W/m 16,7 km/h (3 Bft) 97,87 %
21.07.2017 17:08 26,6 C 26,7 C 26,1 C 47 % 0 lf 1010,7 hPa 0,0 l/m 2 min 0 min 655 W/m 10,5 km/h (2 Bft) 97,83 %
21.07.2017 17:10 26,6 C 26,7 C 26,1 C 48 % 0 lf 1010,7 hPa 0,0 l/m 2 min 0 min 651 W/m 18,8 km/h (3 Bft) 97,87 %
21.07.2017 17:12 26,6 C 26,1 C 25,6 C 48 % 0 lf 1010,8 hPa 0,0 l/m 2 min 0 min 851 W/m 16,7 km/h (3 Bft) 97,87 %
21.07.2017 17:14 26,5 C 26,7 C 25,6 C 48 % 0 lf 1010,8 hPa 0,0 l/m 2 min 0 min 642 W/m 16,7 km/h (3 Bft) 97,87 %
21.07.2017 17:16 26,5 C 26,1 C 25,6 C 47 % 0 lf 1010,7 hPa 0,0 l/m 2 min 0 min 638 W/m 12,6 km/h (3 Bft) 97,87 %
21.07.2017 17:18 26,5 C 26,1 C 25,6 C 48 % 0 lf 1010,7 hPa 0,0 l/m 2 min 0 min 826 W/m 10,5 km/h (2 Bft) 93,48 %
21.07.2017 17:20 26,4 C 25,6 C 25,0 C 48 % 0 lf 1010,7 hPa 0,0 l/m 2 min 0 min 630 W/m 12,6 km/h (3 Bft) 95,74 %
21.07.2017 17:22 26,4 C 26,1 C 25,0 C 48 % 0 lf 1010,6 hPa 0,0 l/m 2 min 0 min 625 W/m 14,6 km/h (3 Bft) 95,74 %
21.07.2017 17:24 26,4 C 26,1 C 25,0 C 47 % 0 lf 1010,5 hPa 0,0 l/m 2 min 0 min 621 W/m 12,6 km/h (3 Bft) 95,74 %
21.07.2017 17:26 26,4 C 26,1 C 25,0 C 47 % 0 lf 1010,6 hPa 0,0 l/m 2 min 0 min 616 W/m 18,8 km/h (3 Bft) 93,62 %
21.07.2017 17:28 26,4 C 26,1 C 25,0 C 47 % 0 lf 1010,5 hPa 0,0 l/m 2 min 0 min 612 W/m 8,4 km/h (2 Bft) 95,74 %
21.07.2017 17:30 26,4 C 26,1 C 25,0 C 48 % 0 lf 1010,5 hPa 0,0 l/m 2 min 0 min 608 W/m 10,5 km/h (2 Bft) 95,65 %
21.07.2017 17:32 26,4 C 26,7 C 25,0 C 48 % 0 lf 1010,4 hPa 0,0 l/m 2 min 0 min 603 W/m 6,3 km/h (2 Bft) 95,74 %
21.07.2017 17:34 26,4 C 26,7 C 25,0 C 48 % 0 lf 1010,4 hPa 0,0 l/m 2 min 0 min 599 W/m 6,3 km/h (2 Bft) 95,74 %
21.07.2017 17:36 26,4 C 27,2 C 25,0 C 48 % 0 lf 1010,4 hPa 0,0 l/m 2 min 0 min 594 W/m 6,3 km/h (2 Bft) 95,74 %
21.07.2017 17:38 26,4 C 27,2 C 25,0 C 50 % 0 lf 1010,3 hPa 0,0 l/m 2 min 0 min 590 W/m 6,3 km/h (2 Bft) 95,74 %
21.07.2017 17:40 26,4 C 27,2 C 25,0 C 48 % 0 lf 1010,5 hPa 0,0 l/m 2 min 0 min 585 W/m 8,4 km/h (2 Bft) 95,74 %
21.07.2017 17:42 26,5 C 26,7 C 25,0 C 49 % 0 lf 1010,5 hPa 0,0 l/m 2 min 0 min 580 W/m 12,6 km/h (3 Bft) 95,65 %
21.07.2017 17:44 26,5 C 26,7 C 24,4 C 48 % 0 lf 1010,5 hPa 0,0 l/m 2 min 0 min 576 W/m 10,5 km/h (2 Bft) 93,62 %
21.07.2017 17:46 26,5 C 26,7 C 24,4 C 49 % 0 lf 1010,5 hPa 0,0 l/m 2 min 0 min 571 W/m 14,6 km/h (3 Bft) 93,62 %
21.07.2017 17:48 26,5 C 26,7 C 24,4 C 48 % 0 lf 1010,5 hPa 0,0 l/m 2 min 0 min 566 W/m 25,1 km/h (4 Bft) 95,74 %
21.07.2017 17:50 26,5 C 26,1 C 24,4 C 48 % 0 lf 1010,5 hPa 0,0 l/m 2 min 0 min 562 W/m 20,9 km/h (4 Bft) 93,62 %
21.07.2017 17:52 26,5 C 26,7 C 24,4 C 48 % 0 lf 1010,4 hPa 0,0 l/m 2 min 0 min 557 W/m 18,8 km/h (3 Bft) 95,74 %
21.07.2017 17:54 26,5 C 26,7 C 24,4 C 48 % 0 lf 1010,3 hPa 0,0 l/m 2 min 0 min 552 W/m 14,6 km/h (3 Bft) 95,65 %
21.07.2017 17:56 26,5 C 26,7 C 24,4 C 48 % 0 lf 1010,3 hPa 0,0 l/m 2 min 0 min 548 W/m 16,7 km/h (3 Bft) 93,62 %
21.07.2017 17:58 26,4 C 26,1 C 24,4 C 47 % 0 lf 1010,3 hPa 0,0 l/m 2 min 0 min 543 W/m 16,7 km/h (3 Bft) 93,62 %
21.07.2017 18:00 26,4 C 26,1 C 24,4 C 48 % 0 lf 1010,3 hPa 0,0 l/m 2 min 0 min 538 W/m 16,7 km/h (3 Bft) 93,62 %
21.07.2017 18:02 26,4 C 26,1 C 24,4 C 48 % 0 lf 1010,3 hPa 0,0 l/m 2 min 0 min 533 W/m 16,7 km/h (3 Bft) 95,74 %
21.07.2017 18:04 26,3 C 26,1 C 24,4 C 47 % 0 lf 1010,2 hPa 0,0 l/m 2 min 0 min 528 W/m 14,6 km/h (3 Bft) 97,87 %
21.07.2017 18:06 26,3 C 26,1 C 24,4 C 47 % 0 lf 1010,2 hPa 0,0 l/m 2 min 0 min 524 W/m 10,5 km/h (2 Bft) 95,65 %
21.07.2017 18:10 26,2 C 26,1 C 23,9 C 48 % 0 lf 1010,0 hPa 0,0 l/m 4 min 0 min 514 W/m 14,6 km/h (3 Bft) 97,87 %
21.07.2017 18:12 26,2 C 26,1 C 23,9 C 48 % 0 lf 1010,1 hPa 0,0 l/m 2 min 0 min 509 W/m 12,6 km/h (3 Bft) 95,74 %
21.07.2017 18:14 26,2 C 26,1 C 23,9 C 50 % 0 lf 1010,0 hPa 0,0 l/m 2 min 0 min 504 W/m 14,6 km/h (3 Bft) 97,87 %
21.07.2017 18:16 26,1 C 26,1 C 23,9 C 48 % 0 lf 1009,8 hPa 0,0 l/m 2 min 0 min 499 W/m 16,7 km/h (3 Bft) 97,87 %
21.07.2017 18:18 26,1 C 26,1 C 23,3 C 48 % 0 lf 1009,9 hPa 0,0 l/m 2 min 0 min 494 W/m 6,3 km/h (2 Bft) 97,83 %
21.07.2017 18:20 26,1 C 26,1 C 23,9 C 49 % 0 lf 1009,8 hPa 0,0 l/m 2 min 0 min 489 W/m 12,6 km/h (3 Bft) 93,62 %
21.07.2017 18:22 26,0 C 26,1 C 23,3 C 49 % 0 lf 1009,9 hPa 0,0 l/m 2 min 0 min 484 W/m 10,5 km/h (2 Bft) 97,87 %
21.07.2017 18:24 26,0 C 26,1 C 23,9 C 49 % 0 lf 1009,8 hPa 0,0 l/m 2 min 0 min 479 W/m 10,5 km/h (2 Bft) 100,00 %
21.07.2017 18:26 25,9 C 26,1 C 23,3 C 49 % 0 lf 1009,8 hPa 0,0 l/m 2 min 0 min 474 W/m 12,6 km/h (3 Bft) 100,00 %
21.07.2017 18:28 25,9 C 26,1 C 23,3 C 49 % 0 lf 1009,8 hPa 0,0 l/m 2 min 0 min 469 W/m 14,6 km/h (3 Bft) 100,00 %
21.07.2017 18:30 25,9 C 26,1 C 23,3 C 49 % 0 lf 1009,9 hPa 0,0 l/m 2 min 0 min 464 W/m 12,6 km/h (3 Bft) 100,00 %
21.07.2017 18:32 25,8 C 26,1 C 23,3 C 49 % 0 lf 1009,7 hPa 0,0 l/m 2 min 0 min 459 W/m 14,6 km/h (3 Bft) 100,00 %
21.07.2017 18:34 25,8 C 25,6 C 23,3 C 49 % 0 lf 1009,7 hPa 0,0 l/m 2 min 0 min 454 W/m 14,6 km/h (3 Bft) 100,00 %
21.07.2017 18:36 25,7 C 26,1 C 23,3 C 50 % 0 lf 1009,7 hPa 0,0 l/m 2 min 0 min 449 W/m 14,6 km/h (3 Bft) 97,87 %
21.07.2017 18:38 25,7 C 25,6 C 23,3 C 49 % 0 lf 1009,7 hPa 0,0 l/m 2 min 0 min 444 W/m 14,6 km/h (3 Bft) 100,00 %
21.07.2017 18:40 25,7 C 25,6 C 23,3 C 49 % 0 lf 1009,7 hPa 0,0 l/m 2 min 0 min 439 W/m 12,6 km/h (3 Bft) 97,83 %
21.07.2017 18:42 25,6 C 25,6 C 23,3 C 49 % 0 lf 1009,7 hPa 0,0 l/m 2 min 0 min 434 W/m 14,6 km/h (3 Bft) 97,87 %
21.07.2017 18:44 25,6 C 25,6 C 23,3 C 49 % 0 lf 1009,7 hPa 0,0 l/m 2 min 0 min 428 W/m 10,5 km/h (2 Bft) 100,00 %
21.07.2017 18:46 25,6 C 25,6 C 23,3 C 50 % 0 lf 1009,7 hPa 0,0 l/m 2 min 0 min 423 W/m 12,6 km/h (3 Bft) 95,74 %
21.07.2017 18:48 25,5 C 25,6 C 23,3 C 49 % 0 lf 1009,6 hPa 0,0 l/m 2 min 0 min 418 W/m 16,7 km/h (3 Bft) 97,87 %
21.07.2017 18:50 25,5 C 26,1 C 23,9 C 50 % 0 lf 1009,5 hPa 0,0 l/m 2 min 0 min 413 W/m 14,6 km/h (3 Bft) 97,87 %
21.07.2017 18:52 25,5 C 25,6 C 23,9 C 49 % 0 lf 1009,5 hPa 0,0 l/m 2 min 0 min 408 W/m 14,6 km/h (3 Bft) 97,83 %
21.07.2017 18:54 25,5 C 25,6 C 23,3 C 50 % 0 lf 1009,5 hPa 0,0 l/m 2 min 0 min 403 W/m 12,6 km/h (3 Bft) 97,87 %
21.07.2017 18:56 25,4 C 25,6 C 23,3 C 50 % 0 lf 1009,5 hPa 0,0 l/m 2 min 0 min 397 W/m 16,7 km/h (3 Bft) 95,74 %
21.07.2017 18:58 25,4 C 25,6 C 23,3 C 50 % 0 lf 1009,4 hPa 0,0 l/m 2 min 0 min 392 W/m 8,4 km/h (2 Bft) 97,87 %
21.07.2017 19:00 25,4 C 25,6 C 23,3 C 51 % 0 lf 1009,4 hPa 0,0 l/m 2 min 0 min 387 W/m 12,6 km/h (3 Bft) 97,87 %
21.07.2017 19:02 25,4 C 26,1 C 23,3 C 50 % 0 lf 1009,4 hPa 0,0 l/m 2 min 0 min 382 W/m 10,5 km/h (2 Bft) 97,87 %
21.07.2017 19:04 25,4 C 26,1 C 23,3 C 50 % 0 lf 1009,4 hPa 0,0 l/m 2 min 0 min 377 W/m 8,4 km/h (2 Bft) 95,65 %
21.07.2017 19:06 25,4 C 26,1 C 23,3 C 51 % 0 lf 1009,3 hPa 0,0 l/m 2 min 0 min 371 W/m 10,5 km/h (2 Bft) 97,87 %
21.07.2017 19:08 25,4 C 25,6 C 23,3 C 50 % 0 lf 1009,3 hPa 0,0 l/m 2 min 0 min 366 W/m 12,6 km/h (3 Bft) 97,87 %
21.07.2017 19:10 25,4 C 25,6 C 23,3 C 50 % 0 lf 1009,4 hPa 0,0 l/m 2 min 0 min 361 W/m 12,6 km/h (3 Bft) 93,62 %
21.07.2017 19:12 25,4 C 25,6 C 23,3 C 51 % 0 lf 1009,3 hPa 0,0 l/m 2 min 0 min 356 W/m 8,4 km/h (2 Bft) 97,87 %
21.07.2017 19:14 25,4 C 25,6 C 23,3 C 51 % 0 lf 1009,4 hPa 0,0 l/m 2 min 0 min 350 W/m 10,5 km/h (2 Bft) 97,87 %
21.07.2017 19:16 25,4 C 25,6 C 23,3 C 50 % 0 lf 1009,3 hPa 0,0 l/m 2 min 0 min 345 W/m 12,6 km/h (3 Bft) 97,83 %
21.07.2017 19:18 25,4 C 25,6 C 23,3 C 51 % 0 lf 1009,3 hPa 0,0 l/m 2 min 0 min 340 W/m 10,5 km/h (2 Bft) 95,74 %
21.07.2017 19:20 25,4 C 25,6 C 23,3 C 50 % 0 lf 1009,4 hPa 0,0 l/m 2 min 0 min 335 W/m 12,6 km/h (3 Bft) 95,74 %
21.07.2017 19:22 25,4 C 25,6 C 23,3 C 50 % 0 lf 1009,3 hPa 0,0 l/m 2 min 0 min 329 W/m 12,6 km/h (3 Bft) 97,87 %
21.07.2017 19:24 25,4 C 25,6 C 23,3 C 52 % 0 lf 1009,3 hPa 0,0 l/m 2 min 0 min 324 W/m 14,6 km/h (3 Bft) 97,87 %
21.07.2017 19:26 25,4 C 25,6 C 23,3 C 51 % 0 lf 1009,3 hPa 0,0 l/m 2 min 0 min 319 W/m 12,6 km/h (3 Bft) 95,74 %
21.07.2017 19:28 25,4 C 25,6 C 23,3 C 50 % 0 lf 1009,2 hPa 0,0 l/m 2 min 0 min 313 W/m 10,5 km/h (2 Bft) 95,65 %
21.07.2017 19:30 25,3 C 25,6 C 23,3 C 50 % 0 lf 1009,2 hPa 0,0 l/m 2 min 0 min 308 W/m 10,5 km/h (2 Bft) 97,87 %
21.07.2017 19:32 25,3 C 25,6 C 23,3 C 51 % 0 lf 1009,2 hPa 0,0 l/m 2 min 0 min 303 W/m 12,6 km/h (3 Bft) 95,74 %
21.07.2017 19:34 25,3 C 25,0 C 23,3 C 52 % 0 lf 1009,3 hPa 0,0 l/m 2 min 0 min 298 W/m 18,8 km/h (3 Bft) 97,87 %
21.07.2017 19:36 25,3 C 25,0 C 23,3 C 51 % 0 lf 1009,3 hPa 0,0 l/m 2 min 0 min 292 W/m 16,7 km/h (3 Bft) 95,74 %
21.07.2017 19:38 25,3 C 25,0 C 23,3 C 51 % 0 lf 1009,3 hPa 0,0 l/m 2 min 0 min 287 W/m 14,6 km/h (3 Bft) 100,00 %
21.07.2017 19:40 25,3 C 25,0 C 23,3 C 52 % 0 lf 1009,4 hPa 0,0 l/m 2 min 0 min 184 W/m 14,6 km/h (3 Bft) 95,65 %
21.07.2017 19:42 25,3 C 25,0 C 23,3 C 52 % 0 lf 1009,4 hPa 0,0 l/m 0 min 0 min 109 W/m 14,6 km/h (3 Bft) 95,74 %
21.07.2017 19:44 25,3 C 25,0 C 22,8 C 52 % 0 lf 1009,4 hPa 0,0 l/m 2 min 0 min 271 W/m 14,6 km/h (3 Bft) 100,00 %
21.07.2017 19:46 25,3 C 25,0 C 22,8 C 52 % 0 lf 1009,3 hPa 0,0 l/m 2 min 0 min 266 W/m 12,6 km/h (3 Bft) 93,62 %
21.07.2017 19:48 25,2 C 25,0 C 22,8 C 52 % 0 lf 1009,3 hPa 0,0 l/m 2 min 0 min 152 W/m 10,5 km/h (2 Bft) 97,87 %
21.07.2017 19:50 25,2 C 24,4 C 22,8 C 52 % 0 lf 1009,3 hPa 0,0 l/m 2 min 0 min 255 W/m 10,5 km/h (2 Bft) 97,87 %
21.07.2017 19:52 25,2 C 24,4 C 22,8 C 52 % 0 lf 1009,4 hPa 0,0 l/m 2 min 0 min 250 W/m 12,6 km/h (3 Bft) 97,83 %
21.07.2017 19:54 25,1 C 24,4 C 22,8 C 52 % 0 lf 1009,3 hPa 0,0 l/m 2 min 0 min 245 W/m 12,6 km/h (3 Bft) 95,74 %
21.07.2017 19:56 25,1 C 24,4 C 22,8 C 52 % 0 lf 1009,3 hPa 0,0 l/m 2 min 0 min 239 W/m 14,6 km/h (3 Bft) 95,74 %
21.07.2017 19:58 25,1 C 24,4 C 22,8 C 52 % 0 lf 1009,3 hPa 0,0 l/m 0 min 0 min 99 W/m 8,4 km/h (2 Bft) 95,74 %
21.07.2017 20:00 25,1 C 23,9 C 22,8 C 52 % 0 lf 1009,3 hPa 0,0 l/m 0 min 0 min 70 W/m 12,6 km/h (3 Bft) 91,49 %
21.07.2017 20:02 25,0 C 23,9 C 22,2 C 53 % 0 lf 1009,3 hPa 0,0 l/m 0 min 0 min 64 W/m 10,5 km/h (2 Bft) 91,30 %
21.07.2017 20:04 24,9 C 23,9 C 22,2 C 53 % 0 lf 1009,3 hPa 0,0 l/m 0 min 0 min 59 W/m 8,4 km/h (2 Bft) 95,74 %
21.07.2017 20:06 24,9 C 23,9 C 22,2 C 53 % 0 lf 1009,2 hPa 0,0 l/m 2 min 0 min 119 W/m 10,5 km/h (2 Bft) 95,74 %
21.07.2017 20:08 24,8 C 23,9 C 22,2 C 54 % 0 lf 1009,2 hPa 0,0 l/m 2 min 0 min 132 W/m 14,6 km/h (3 Bft) 95,74 %
21.07.2017 20:10 24,8 C 23,9 C 22,2 C 54 % 0 lf 1009,3 hPa 0,0 l/m 2 min 0 min 98 W/m 14,6 km/h (3 Bft) 90,48 %
21.07.2017 20:12 24,8 C 23,9 C 22,2 C 54 % 0 lf 1009,3 hPa 0,0 l/m 0 min 0 min 91 W/m 12,6 km/h (3 Bft) 93,62 %
21.07.2017 20:14 24,7 C 23,9 C 22,2 C 54 % 0 lf 1009,3 hPa 0,0 l/m 2 min 0 min 90 W/m 8,4 km/h (2 Bft) 93,62 %
21.07.2017 20:16 24,7 C 23,9 C 22,2 C 54 % 0 lf 1009,2 hPa 0,0 l/m 0 min 0 min 77 W/m 8,4 km/h (2 Bft) 91,30 %
21.07.2017 20:18 24,6 C 23,3 C 22,2 C 55 % 0 lf 1009,2 hPa 0,0 l/m 2 min 0 min 92 W/m 10,5 km/h (2 Bft) 93,62 %
21.07.2017 20:20 24,6 C 23,3 C 21,7 C 55 % 0 lf 1009,3 hPa 0,0 l/m 2 min 0 min 103 W/m 8,4 km/h (2 Bft) 93,62 %
21.07.2017 20:22 24,6 C 23,3 C 21,7 C 55 % 0 lf 1009,2 hPa 0,0 l/m 2 min 0 min 204 W/m 8,4 km/h (2 Bft) 90,38 %
21.07.2017 20:24 24,5 C 23,3 C 21,7 C 55 % 0 lf 1009,3 hPa 0,0 l/m 2 min 0 min 166 W/m 8,4 km/h (2 Bft) 93,62 %
21.07.2017 20:26 24,4 C 23,3 C 21,1 C 55 % 0 lf 1009,3 hPa 0,0 l/m 2 min 0 min 161 W/m 6,3 km/h (2 Bft) 91,30 %
21.07.2017 20:28 24,4 C 23,3 C 21,1 C 56 % 0 lf 1009,3 hPa 0,0 l/m 2 min 0 min 155 W/m 6,3 km/h (2 Bft) 95,74 %
21.07.2017 20:30 24,4 C 23,3 C 21,1 C 56 % 0 lf 1009,2 hPa 0,0 l/m 2 min 0 min 150 W/m 8,4 km/h (2 Bft) 95,74 %
21.07.2017 20:32 24,3 C 23,3 C 21,1 C 56 % 0 lf 1009,3 hPa 0,0 l/m 2 min 0 min 145 W/m 8,4 km/h (2 Bft) 93,62 %
21.07.2017 20:34 24,3 C 23,3 C 21,1 C 56 % 0 lf 1009,3 hPa 0,0 l/m 2 min 0 min 140 W/m 6,3 km/h (2 Bft) 95,74 %
21.07.2017 20:36 24,3 C 23,3 C 21,1 C 56 % 0 lf 1009,3 hPa 0,0 l/m 2 min 0 min 135 W/m 6,3 km/h (2 Bft) 95,74 %
21.07.2017 20:38 24,2 C 23,3 C 21,1 C 56 % 0 lf 1009,3 hPa 0,0 l/m 0 min 0 min 58 W/m 4,2 km/h (1 Bft) 93,48 %
21.07.2017 20:40 24,2 C 23,3 C 21,1 C 56 % 0 lf 1009,3 hPa 0,0 l/m 0 min 0 min 56 W/m 8,4 km/h (2 Bft) 95,74 %
21.07.2017 20:42 24,2 C 22,8 C 21,1 C 56 % 0 lf 1009,3 hPa 0,0 l/m 0 min 0 min 53 W/m 10,5 km/h (2 Bft) 95,74 %
21.07.2017 20:44 24,1 C 22,8 C 21,1 C 57 % 0 lf 1009,4 hPa 0,0 l/m 0 min 0 min 49 W/m 6,3 km/h (2 Bft) 95,74 %
21.07.2017 20:46 24,1 C 22,8 C 21,1 C 57 % 0 lf 1009,4 hPa 0,0 l/m 0 min 0 min 41 W/m 8,4 km/h (2 Bft) 97,87 %
21.07.2017 20:48 24,1 C 22,8 C 20,6 C 57 % 0 lf 1009,3 hPa 0,0 l/m 0 min 0 min 38 W/m 6,3 km/h (2 Bft) 97,87 %
21.07.2017 20:50 24,0 C 22,8 C 20,6 C 57 % 0 lf 1009,4 hPa 0,0 l/m 0 min 0 min 41 W/m 8,4 km/h (2 Bft) 95,65 %
21.07.2017 20:52 24,0 C 22,8 C 20,6 C 57 % 0 lf 1009,4 hPa 0,0 l/m 0 min 0 min 36 W/m 6,3 km/h (2 Bft) 95,74 %
21.07.2017 20:54 23,9 C 22,8 C 20,0 C 58 % 0 lf 1009,5 hPa 0,0 l/m 0 min 0 min 34 W/m 4,2 km/h (1 Bft) 91,49 %
21.07.2017 20:56 23,9 C 22,2 C 20,0 C 58 % 0 lf 1009,4 hPa 0,0 l/m 0 min 0 min 32 W/m 6,3 km/h (2 Bft) 97,87 %
21.07.2017 20:58 23,9 C 22,2 C 20,0 C 58 % 0 lf 1009,4 hPa 0,0 l/m 0 min 0 min 30 W/m 4,2 km/h (1 Bft) 97,87 %
21.07.2017 21:00 23,8 C 22,2 C 19,4 C 58 % 0 lf 1009,4 hPa 0,0 l/m 0 min 0 min 31 W/m 6,3 km/h (2 Bft) 97,87 %
21.07.2017 21:02 23,8 C 22,2 C 20,0 C 58 % 0 lf 1009,3 hPa 0,0 l/m 0 min 0 min 26 W/m 8,4 km/h (2 Bft) 97,83 %
21.07.2017 21:04 23,8 C 22,2 C 20,0 C 58 % 0 lf 1009,4 hPa 0,0 l/m 0 min 0 min 22 W/m 8,4 km/h (2 Bft) 97,87 %
21.07.2017 21:06 23,7 C 22,2 C 20,0 C 59 % 0 lf 1009,4 hPa 0,0 l/m 0 min 0 min 18 W/m 6,3 km/h (2 Bft) 100,00 %
21.07.2017 21:08 23,7 C 22,2 C 19,4 C 59 % 0 lf 1009,4 hPa 0,0 l/m 0 min 0 min 16 W/m 6,3 km/h (2 Bft) 97,87 %
21.07.2017 21:10 23,6 C 22,2 C 19,4 C 59 % 0 lf 1009,3 hPa 0,0 l/m 0 min 0 min 14 W/m 6,3 km/h (2 Bft) 95,74 %
21.07.2017 21:12 23,6 C 21,7 C 19,4 C 60 % 0 lf 1009,3 hPa 0,0 l/m 0 min 0 min 12 W/m 6,3 km/h (2 Bft) 100,00 %
21.07.2017 21:14 23,6 C 21,7 C 19,4 C 60 % 0 lf 1009,2 hPa 0,0 l/m 0 min 0 min 12 W/m 6,3 km/h (2 Bft) 93,62 %
21.07.2017 21:16 23,5 C 21,7 C 19,4 C 60 % 0 lf 1009,2 hPa 0,0 l/m 0 min 0 min 12 W/m 8,4 km/h (2 Bft) 97,87 %
21.07.2017 21:18 23,4 C 21,7 C 19,4 C 60 % 0 lf 1009,2 hPa 0,0 l/m 0 min 0 min 12 W/m 6,3 km/h (2 Bft) 97,87 %
21.07.2017 21:20 23,4 C 21,7 C 19,4 C 60 % 0 lf 1009,1 hPa 0,0 l/m 0 min 0 min 11 W/m 6,3 km/h (2 Bft) 97,87 %
21.07.2017 21:22 23,3 C 21,7 C 19,4 C 60 % 0 lf 1009,1 hPa 0,0 l/m 0 min 0 min 11 W/m 6,3 km/h (2 Bft) 97,87 %
21.07.2017 21:24 23,3 C 21,7 C 18,9 C 61 % 0 lf 1009,2 hPa 0,0 l/m 0 min 0 min 11 W/m 6,3 km/h (2 Bft) 97,83 %
21.07.2017 21:26 23,2 C 21,1 C 18,9 C 61 % 0 lf 1009,2 hPa 0,0 l/m 0 min 0 min 11 W/m 6,3 km/h (2 Bft) 100,00 %
21.07.2017 21:28 23,2 C 21,1 C 18,9 C 61 % 0 lf 1009,1 hPa 0,0 l/m 0 min 0 min 11 W/m 6,3 km/h (2 Bft) 100,00 %
21.07.2017 21:30 23,2 C 21,1 C 18,9 C 61 % 0 lf 1009,1 hPa 0,0 l/m 0 min 0 min 10 W/m 4,2 km/h (1 Bft) 100,00 %
21.07.2017 21:32 23,1 C 21,1 C 18,9 C 61 % 0 lf 1009,1 hPa 0,0 l/m 0 min 0 min 9 W/m 6,3 km/h (2 Bft) 97,87 %
21.07.2017 21:34 23,1 C 21,1 C 18,9 C 61 % 0 lf 1009,1 hPa 0,0 l/m 0 min 0 min 10 W/m 6,3 km/h (2 Bft) 100,00 %
21.07.2017 21:36 23,1 C 21,1 C 18,3 C 62 % 0 lf 1009,1 hPa 0,0 l/m 0 min 0 min 11 W/m 6,3 km/h (2 Bft) 100,00 %
21.07.2017 21:38 23,0 C 21,1 C 18,3 C 62 % 0 lf 1009,2 hPa 0,0 l/m 0 min 0 min 9 W/m 6,3 km/h (2 Bft) 97,83 %
21.07.2017 21:40 22,9 C 21,1 C 18,3 C 62 % 0 lf 1009,2 hPa 0,0 l/m 0 min 0 min 9 W/m 2,1 km/h (1 Bft) 100,00 %
21.07.2017 21:42 22,9 C 21,1 C 18,3 C 62 % 0 lf 1009,2 hPa 0,0 l/m 0 min 0 min 9 W/m 4,2 km/h (1 Bft) 100,00 %
21.07.2017 21:44 22,8 C 21,1 C 18,3 C 62 % 0 lf 1009,2 hPa 0,0 l/m 0 min 0 min 8 W/m 6,3 km/h (2 Bft) 97,87 %
21.07.2017 21:46 22,8 C 21,1 C 18,3 C 63 % 0 lf 1009,3 hPa 0,0 l/m 0 min 0 min 6 W/m 6,3 km/h (2 Bft) 100,00 %
21.07.2017 21:48 22,7 C 21,7 C 18,3 C 63 % 0 lf 1009,3 hPa 0,0 l/m 0 min 0 min 3 W/m 6,3 km/h (2 Bft) 100,00 %
21.07.2017 21:50 22,7 C 21,7 C 18,3 C 63 % 0 lf 1009,3 hPa 0,0 l/m 0 min 0 min 0 W/m 4,2 km/h (1 Bft) 97,87 %
21.07.2017 21:52 22,7 C 21,1 C 18,3 C 63 % 0 lf 1009,3 hPa 0,0 l/m 0 min 0 min 0 W/m 4,2 km/h (1 Bft) 100,00 %
21.07.2017 21:54 22,6 C 21,1 C 18,3 C 63 % 0 lf 1009,3 hPa 0,0 l/m 0 min 0 min 0 W/m 6,3 km/h (2 Bft) 100,00 %
21.07.2017 21:56 22,6 C 21,1 C 18,3 C 63 % 0 lf 1009,3 hPa 0,0 l/m 0 min 0 min 0 W/m 4,2 km/h (1 Bft) 100,00 %
21.07.2017 21:58 22,5 C 21,1 C 18,3 C 63 % 0 lf 1009,3 hPa 0,0 l/m 0 min 0 min 0 W/m 4,2 km/h (1 Bft) 97,87 %
21.07.2017 22:00 22,5 C 21,1 C 17,8 C 64 % 0 lf 1009,3 hPa 0,0 l/m 0 min 0 min 0 W/m 6,3 km/h (2 Bft) 95,65 %
21.07.2017 22:02 22,4 C 20,6 C 17,8 C 64 % 0 lf 1009,3 hPa 0,0 l/m 0 min 0 min 0 W/m 4,2 km/h (1 Bft) 91,49 %
21.07.2017 22:04 22,4 C 20,6 C 17,8 C 65 % 0 lf 1009,3 hPa 0,0 l/m 0 min 0 min 0 W/m 4,2 km/h (1 Bft) 95,74 %
21.07.2017 22:06 22,3 C 20,6 C 17,8 C 65 % 0 lf 1009,3 hPa 0,0 l/m 0 min 0 min 0 W/m 4,2 km/h (1 Bft) 91,49 %
21.07.2017 22:08 22,3 C 20,0 C 17,8 C 65 % 0 lf 1009,3 hPa 0,0 l/m 0 min 0 min 0 W/m 4,2 km/h (1 Bft) 95,74 %
21.07.2017 22:10 22,3 C 20,0 C 17,8 C 65 % 0 lf 1009,3 hPa 0,0 l/m 0 min 0 min 0 W/m 4,2 km/h (1 Bft) 95,74 %
21.07.2017 22:12 22,2 C 20,0 C 17,8 C 65 % 0 lf 1009,2 hPa 0,0 l/m 0 min 0 min 0 W/m 4,2 km/h (1 Bft) 95,65 %
21.07.2017 22:14 22,2 C 20,0 C 17,2 C 65 % 0 lf 1009,2 hPa 0,0 l/m 0 min 0 min 0 W/m 2,1 km/h (1 Bft) 95,74 %
21.07.2017 22:16 22,1 C 20,0 C 17,2 C 65 % 0 lf 1009,2 hPa 0,0 l/m 0 min 0 min 0 W/m 4,2 km/h (1 Bft) 93,62 %
21.07.2017 22:18 22,1 C 20,0 C 17,2 C 66 % 0 lf 1009,2 hPa 0,0 l/m 0 min 0 min 0 W/m 4,2 km/h (1 Bft) 93,62 %
21.07.2017 22:20 22,1 C 19,4 C 17,2 C 66 % 0 lf 1009,2 hPa 0,0 l/m 0 min 0 min 4 W/m 6,3 km/h (2 Bft) 97,87 %
21.07.2017 22:22 22,0 C 19,4 C 17,2 C 66 % 0 lf 1009,2 hPa 0,0 l/m 0 min 0 min 0 W/m 4,2 km/h (1 Bft) 95,74 %
21.07.2017 22:24 21,9 C 19,4 C 17,2 C 66 % 0 lf 1009,2 hPa 0,0 l/m 0 min 0 min 0 W/m 4,2 km/h (1 Bft) 91,30 %
21.07.2017 22:26 21,9 C 19,4 C 17,2 C 67 % 0 lf 1009,1 hPa 0,0 l/m 0 min 0 min 2 W/m 2,1 km/h (1 Bft) 95,74 %
21.07.2017 22:28 21,8 C 19,4 C 17,2 C 67 % 0 lf 1009,1 hPa 0,0 l/m 0 min 0 min 0 W/m 4,2 km/h (1 Bft) 95,74 %
21.07.2017 22:30 21,8 C 19,4 C 17,2 C 67 % 0 lf 1009,1 hPa 0,0 l/m 0 min 0 min 0 W/m 4,2 km/h (1 Bft) 93,62 %
21.07.2017 22:32 21,7 C 19,4 C 17,2 C 67 % 0 lf 1009,1 hPa 0,0 l/m 0 min 0 min 5 W/m 4,2 km/h (1 Bft) 95,74 %
21.07.2017 22:34 21,7 C 19,4 C 17,2 C 67 % 0 lf 1009,1 hPa 0,0 l/m 0 min 0 min 5 W/m 2,1 km/h (1 Bft) 95,74 %
21.07.2017 22:36 21,6 C 19,4 C 17,2 C 68 % 0 lf 1009,1 hPa 0,0 l/m 0 min 0 min 5 W/m 4,2 km/h (1 Bft) 93,48 %
21.07.2017 22:38 21,6 C 19,4 C 17,2 C 68 % 0 lf 1009,0 hPa 0,0 l/m 0 min 0 min 0 W/m 2,1 km/h (1 Bft) 91,49 %
21.07.2017 22:40 21,5 C 19,4 C 17,2 C 68 % 0 lf 1009,0 hPa 0,0 l/m 0 min 0 min 1 W/m 2,1 km/h (1 Bft) 95,74 %
21.07.2017 22:42 21,4 C 19,4 C 17,2 C 68 % 0 lf 1009,0 hPa 0,0 l/m 0 min 0 min 0 W/m 2,1 km/h (1 Bft) 95,74 %
21.07.2017 22:44 21,4 C 18,9 C 17,2 C 68 % 0 lf 1009,0 hPa 0,0 l/m 0 min 0 min 1 W/m 2,1 km/h (1 Bft) 95,74 %
21.07.2017 22:46 21,4 C 18,9 C 17,2 C 69 % 0 lf 1009,0 hPa 0,0 l/m 0 min 0 min 1 W/m 0,0 km/h (0 Bft) 91,49 %
21.07.2017 22:48 21,3 C 18,9 C 17,2 C 69 % 0 lf 1009,0 hPa 0,0 l/m 0 min 0 min 0 W/m 0,0 km/h (0 Bft) 95,65 %
21.07.2017 22:50 21,3 C 19,4 C 17,2 C 69 % 0 lf 1009,1 hPa 0,0 l/m 0 min 0 min 3 W/m 0,0 km/h (0 Bft) 95,74 %
21.07.2017 22:52 21,2 C 19,4 C 17,2 C 69 % 0 lf 1009,1 hPa 0,0 l/m 0 min 0 min 5 W/m 0,0 km/h (0 Bft) 93,62 %
21.07.2017 22:54 21,2 C 19,4 C 17,2 C 69 % 0 lf 1009,1 hPa 0,0 l/m 0 min 0 min 0 W/m 0,0 km/h (0 Bft) 95,74 %
21.07.2017 22:56 21,1 C 19,4 C 17,2 C 70 % 0 lf 1009,1 hPa 0,0 l/m 0 min 0 min 2 W/m 0,0 km/h (0 Bft) 93,62 %
21.07.2017 22:58 21,1 C 19,4 C 17,2 C 70 % 0 lf 1009,0 hPa 0,0 l/m 0 min 0 min 0 W/m 0,0 km/h (0 Bft) 95,65 %
21.07.2017 23:00 21,0 C 19,4 C 17,2 C 70 % 0 lf 1009,0 hPa 0,0 l/m 0 min 0 min 0 W/m 0,0 km/h (0 Bft) 95,74 %
21.07.2017 23:02 21,0 C 19,4 C 17,8 C 70 % 0 lf 1009,1 hPa 0,0 l/m 0 min 0 min 0 W/m 0,0 km/h (0 Bft) 93,62 %
21.07.2017 23:04 20,9 C 20,0 C 17,8 C 71 % 0 lf 1009,1 hPa 0,0 l/m 0 min 0 min 0 W/m 0,0 km/h (0 Bft) 93,75 %
21.07.2017 23:06 20,9 C 20,0 C 17,8 C 71 % 0 lf 1009,1 hPa 0,0 l/m 0 min 0 min 0 W/m 0,0 km/h (0 Bft) 97,87 %
21.07.2017 23:08 20,9 C 20,0 C 17,8 C 71 % 0 lf 1009,2 hPa 0,0 l/m 0 min 0 min 3 W/m 0,0 km/h (0 Bft) 95,74 %
21.07.2017 23:10 20,8 C 20,0 C 17,8 C 71 % 0 lf 1009,2 hPa 0,0 l/m 0 min 0 min 5 W/m 0,0 km/h (0 Bft) 93,48 %
21.07.2017 23:12 20,8 C 19,4 C 17,8 C 72 % 0 lf 1009,2 hPa 0,0 l/m 0 min 0 min 5 W/m 0,0 km/h (0 Bft) 93,62 %
21.07.2017 23:14 20,8 C 20,0 C 17,8 C 72 % 0 lf 1009,2 hPa 0,0 l/m 0 min 0 min 2 W/m 0,0 km/h (0 Bft) 95,74 %
21.07.2017 23:16 20,8 C 20,0 C 17,8 C 73 % 0 lf 1009,2 hPa 0,0 l/m 0 min 0 min 4 W/m 0,0 km/h (0 Bft) 95,74 %
21.07.2017 23:18 20,7 C 19,4 C 17,8 C 73 % 0 lf 1009,2 hPa 0,0 l/m 0 min 0 min 5 W/m 0,0 km/h (0 Bft) 93,62 %
21.07.2017 23:20 20,7 C 19,4 C 17,8 C 73 % 0 lf 1009,3 hPa 0,0 l/m 0 min 0 min 0 W/m 0,0 km/h (0 Bft) 97,87 %
21.07.2017 23:22 20,7 C 19,4 C 17,8 C 73 % 0 lf 1009,1 hPa 0,0 l/m 0 min 0 min 5 W/m 0,0 km/h (0 Bft) 97,83 %
21.07.2017 23:24 20,7 C 19,4 C 17,8 C 73 % 0 lf 1009,2 hPa 0,0 l/m 0 min 0 min 5 W/m 0,0 km/h (0 Bft) 95,74 %
21.07.2017 23:26 20,6 C 19,4 C 17,2 C 73 % 0 lf 1009,1 hPa 0,0 l/m 0 min 0 min 5 W/m 0,0 km/h (0 Bft) 93,62 %
21.07.2017 23:28 20,6 C 19,4 C 17,2 C 73 % 0 lf 1009,1 hPa 0,0 l/m 0 min 0 min 1 W/m 0,0 km/h (0 Bft) 97,87 %
21.07.2017 23:30 20,6 C 19,4 C 17,2 C 73 % 0 lf 1009,0 hPa 0,0 l/m 0 min 0 min 0 W/m 0,0 km/h (0 Bft) 91,49 %
21.07.2017 23:32 20,5 C 19,4 C 17,2 C 73 % 0 lf 1009,0 hPa 0,0 l/m 0 min 0 min 0 W/m 0,0 km/h (0 Bft) 97,87 %
21.07.2017 23:34 20,5 C 19,4 C 17,2 C 73 % 0 lf 1009,0 hPa 0,0 l/m 0 min 0 min 0 W/m 0,0 km/h (0 Bft) 95,65 %
21.07.2017 23:36 20,5 C 18,9 C 17,2 C 73 % 0 lf 1009,1 hPa 0,0 l/m 0 min 0 min 0 W/m 0,0 km/h (0 Bft) 97,87 %
21.07.2017 23:38 20,4 C 18,9 C 17,2 C 73 % 0 lf 1009,0 hPa 0,0 l/m 0 min 0 min 0 W/m 4,2 km/h (1 Bft) 97,87 %
21.07.2017 23:40 20,4 C 18,9 C 17,2 C 73 % 0 lf 1009,0 hPa 0,0 l/m 0 min 0 min 0 W/m 4,2 km/h (1 Bft) 97,87 %
21.07.2017 23:42 20,4 C 18,9 C 17,2 C 73 % 0 lf 1009,0 hPa 0,0 l/m 0 min 0 min 0 W/m 4,2 km/h (1 Bft) 95,74 %
21.07.2017 23:44 20,4 C 18,9 C 17,2 C 73 % 0 lf 1008,9 hPa 0,0 l/m 0 min 0 min 0 W/m 4,2 km/h (1 Bft) 91,49 %
21.07.2017 23:46 20,3 C 18,9 C 17,2 C 73 % 0 lf 1009,0 hPa 0,0 l/m 0 min 0 min 0 W/m 4,2 km/h (1 Bft) 95,65 %
21.07.2017 23:48 20,3 C 18,9 C 17,2 C 73 % 0 lf 1009,0 hPa 0,0 l/m 0 min 0 min 0 W/m 4,2 km/h (1 Bft) 95,74 %
21.07.2017 23:50 20,3 C 19,4 C 17,2 C 74 % 0 lf 1009,0 hPa 0,0 l/m 0 min 0 min 0 W/m 2,1 km/h (1 Bft) 97,87 %
21.07.2017 23:52 20,3 C 19,4 C 17,2 C 74 % 0 lf 1009,0 hPa 0,0 l/m 0 min 0 min 0 W/m 4,2 km/h (1 Bft) 93,62 %
21.07.2017 23:54 20,3 C 19,4 C 17,2 C 74 % 0 lf 1009,0 hPa 0,0 l/m 0 min 0 min 0 W/m 4,2 km/h (1 Bft) 97,87 %
21.07.2017 23:56 20,2 C 19,4 C 17,2 C 74 % 0 lf 1009,0 hPa 0,0 l/m 0 min 0 min 0 W/m 2,1 km/h (1 Bft) 97,87 %
21.07.2017 23:58 20,2 C 19,4 C 17,2 C 74 % 0 lf 1008,9 hPa 0,0 l/m 0 min 0 min 0 W/m 2,1 km/h (1 Bft) 95,65 %
_ Min-Zeit 06:38 04:56 05:08 13:06 00:00 23:44 - - - - 09:44 00:02
Minimum _ 12,2 C 11,1 C 10,0 C 47 % 0 lf 1008,9 hPa - - - - 0,0 km/h (0 Bft) 15,38 %
_ Max-Zeit 16:54 12:50 15:52 06:52 00:00 09:22 00:00 12:10 00:00 14:08 10:46 00:14
Maximum _ 26,6 C 35,0 C 35,6 C 86 % 0 lf 1014,4 hPa 0,0 l/m 4 min 0 min 1174 W/m 25,1 km/h
O-NO (4 Bft)
100,00 %
Durchschnitt _ 20,0 C 21,8 C 20,1 C 65 % 0 lf 1012,2 hPa #0,0 l/m #14:02 h #0 min. 458 W/m 9,2 km/h (2 Bft) 96,27 %
© 2017 W. Hausmann